Wetterdaten: Samstag, 20.04.2013
Datum Zeit Temp. Aussen +5cm Feuchte Auss Luftdruck Regen Sonnenschein Regendauer UV Solar Windben
20.04.2013 00:00 7,3 C 6,2 C 90 % 1028,3 hPa 0,0 l/m 0 min 0 min 0,0 UV-I 0 W/m 5,1 km/h (1 Bft)
20.04.2013 00:02 7,3 C 6,2 C 90 % 1028,4 hPa 0,0 l/m 0 min 0 min 0,0 UV-I 0 W/m 2,6 km/h (1 Bft)
20.04.2013 00:06 7,3 C 6,2 C 90 % 1028,3 hPa 0,0 l/m 0 min 0 min 0,0 UV-I 0 W/m 12,9 km/h (3 Bft)
20.04.2013 00:08 7,3 C 6,2 C 90 % 1028,4 hPa 0,0 l/m 0 min 0 min 0,0 UV-I 0 W/m 12,9 km/h (3 Bft)
20.04.2013 00:10 7,3 C 6,2 C 90 % 1028,5 hPa 0,0 l/m 0 min 0 min 0,0 UV-I 0 W/m 18,0 km/h (3 Bft)
20.04.2013 00:12 7,3 C 6,2 C 90 % 1028,5 hPa 0,0 l/m 0 min 0 min 0,0 UV-I 0 W/m 10,3 km/h (2 Bft)
20.04.2013 00:14 7,3 C 6,2 C 90 % 1028,5 hPa 0,0 l/m 0 min 0 min 0,0 UV-I 0 W/m 12,9 km/h (3 Bft)
20.04.2013 00:16 7,3 C 6,2 C 90 % 1028,4 hPa 0,0 l/m 0 min 0 min 0,0 UV-I 0 W/m 15,4 km/h (3 Bft)
20.04.2013 00:18 7,3 C 6,2 C 90 % 1028,4 hPa 0,0 l/m 0 min 0 min 0,0 UV-I 0 W/m 15,4 km/h (3 Bft)
20.04.2013 00:20 7,3 C 6,2 C 90 % 1028,4 hPa 0,0 l/m 0 min 0 min 0,0 UV-I 0 W/m 23,2 km/h (4 Bft)
20.04.2013 00:22 7,3 C 6,2 C 90 % 1028,3 hPa 0,0 l/m 0 min 0 min 0,0 UV-I 0 W/m 18,0 km/h (3 Bft)
20.04.2013 00:24 7,4 C 6,2 C 90 % 1028,5 hPa 0,0 l/m 0 min 0 min 0,0 UV-I 0 W/m 15,4 km/h (3 Bft)
20.04.2013 00:26 7,4 C 6,2 C 90 % 1028,6 hPa 0,0 l/m 0 min 0 min 0,0 UV-I 0 W/m 12,9 km/h (3 Bft)
20.04.2013 00:28 7,3 C 6,2 C 89 % 1028,6 hPa 0,0 l/m 0 min 0 min 0,0 UV-I 0 W/m 20,6 km/h (4 Bft)
20.04.2013 00:30 7,3 C 6,2 C 89 % 1028,6 hPa 0,0 l/m 0 min 0 min 0,0 UV-I 0 W/m 18,0 km/h (3 Bft)
20.04.2013 00:32 7,3 C 6,2 C 89 % 1028,7 hPa 0,0 l/m 0 min 0 min 0,0 UV-I 0 W/m 10,3 km/h (2 Bft)
20.04.2013 00:34 7,3 C 6,2 C 89 % 1028,7 hPa 0,0 l/m 0 min 0 min 0,0 UV-I 0 W/m 15,4 km/h (3 Bft)
20.04.2013 00:36 7,3 C 6,2 C 89 % 1028,7 hPa 0,0 l/m 0 min 0 min 0,0 UV-I 0 W/m 15,4 km/h (3 Bft)
20.04.2013 00:38 7,3 C 6,2 C 89 % 1028,6 hPa 0,0 l/m 0 min 0 min 0,0 UV-I 0 W/m 12,9 km/h (3 Bft)
20.04.2013 00:40 7,2 C 6,2 C 89 % 1028,7 hPa 0,0 l/m 0 min 0 min 0,0 UV-I 0 W/m 15,4 km/h (3 Bft)
20.04.2013 00:42 7,2 C 6,2 C 89 % 1028,7 hPa 0,0 l/m 0 min 0 min 0,0 UV-I 0 W/m 12,9 km/h (3 Bft)
20.04.2013 00:44 7,2 C 6,2 C 89 % 1028,8 hPa 0,0 l/m 0 min 0 min 0,0 UV-I 0 W/m 18,0 km/h (3 Bft)
20.04.2013 00:46 7,2 C 6,2 C 89 % 1028,8 hPa 0,0 l/m 0 min 0 min 0,0 UV-I 0 W/m 18,0 km/h (3 Bft)
20.04.2013 00:48 7,2 C 6,2 C 90 % 1028,8 hPa 0,0 l/m 0 min 0 min 0,0 UV-I 0 W/m 20,6 km/h (4 Bft)
20.04.2013 00:50 7,2 C 6,2 C 90 % 1028,9 hPa 0,0 l/m 0 min 0 min 0,0 UV-I 0 W/m 28,3 km/h (4 Bft)
20.04.2013 00:52 7,2 C 6,2 C 90 % 1028,8 hPa 0,0 l/m 0 min 0 min 0,0 UV-I 0 W/m 12,9 km/h (3 Bft)
20.04.2013 00:54 7,2 C 6,2 C 90 % 1028,9 hPa 0,0 l/m 0 min 0 min 0,0 UV-I 0 W/m 12,9 km/h (3 Bft)
20.04.2013 00:56 7,2 C 6,2 C 90 % 1028,9 hPa 0,0 l/m 0 min 0 min 0,0 UV-I 0 W/m 20,6 km/h (4 Bft)
20.04.2013 00:58 7,2 C 6,2 C 90 % 1028,9 hPa 0,0 l/m 0 min 0 min 0,0 UV-I 0 W/m 18,0 km/h (3 Bft)
20.04.2013 01:00 7,2 C 6,2 C 90 % 1029,0 hPa 0,0 l/m 0 min 0 min 0,0 UV-I 0 W/m 18,0 km/h (3 Bft)
20.04.2013 01:02 7,2 C 6,2 C 89 % 1029,0 hPa 0,0 l/m 0 min 0 min 0,0 UV-I 0 W/m 18,0 km/h (3 Bft)
20.04.2013 01:04 7,2 C 6,2 C 90 % 1029,0 hPa 0,0 l/m 0 min 0 min 0,0 UV-I 0 W/m 12,9 km/h (3 Bft)
20.04.2013 01:06 7,2 C 6,2 C 89 % 1029,0 hPa 0,0 l/m 0 min 0 min 0,0 UV-I 0 W/m 20,6 km/h (4 Bft)
20.04.2013 01:08 7,2 C 6,2 C 89 % 1029,0 hPa 0,0 l/m 0 min 0 min 0,0 UV-I 0 W/m 18,0 km/h (3 Bft)
20.04.2013 01:10 7,2 C 6,2 C 89 % 1029,0 hPa 0,0 l/m 0 min 0 min 0,0 UV-I 0 W/m 15,4 km/h (3 Bft)
20.04.2013 01:12 7,2 C 6,2 C 88 % 1029,0 hPa 0,0 l/m 0 min 0 min 0,0 UV-I 0 W/m 23,2 km/h (4 Bft)
20.04.2013 01:14 7,2 C 6,2 C 88 % 1029,0 hPa 0,0 l/m 0 min 0 min 0,0 UV-I 0 W/m 12,9 km/h (3 Bft)
20.04.2013 01:16 7,2 C 6,2 C 87 % 1029,0 hPa 0,0 l/m 0 min 0 min 0,0 UV-I 0 W/m 18,0 km/h (3 Bft)
20.04.2013 01:18 7,2 C 6,2 C 87 % 1029,1 hPa 0,0 l/m 0 min 0 min 0,0 UV-I 0 W/m 18,0 km/h (3 Bft)
20.04.2013 01:20 7,2 C 6,2 C 86 % 1029,1 hPa 0,0 l/m 0 min 0 min 0,0 UV-I 0 W/m 18,0 km/h (3 Bft)
20.04.2013 01:22 7,2 C 6,2 C 85 % 1029,1 hPa 0,0 l/m 0 min 0 min 0,0 UV-I 0 W/m 23,2 km/h (4 Bft)
20.04.2013 01:24 7,2 C 6,2 C 85 % 1029,1 hPa 0,0 l/m 0 min 0 min 0,0 UV-I 0 W/m 15,4 km/h (3 Bft)
20.04.2013 01:26 7,2 C 6,2 C 85 % 1029,1 hPa 0,0 l/m 0 min 0 min 0,0 UV-I 0 W/m 15,4 km/h (3 Bft)
20.04.2013 01:28 7,2 C 6,2 C 84 % 1029,0 hPa 0,0 l/m 0 min 0 min 0,0 UV-I 0 W/m 18,0 km/h (3 Bft)
20.04.2013 01:30 7,2 C 6,2 C 84 % 1029,1 hPa 0,0 l/m 0 min 0 min 0,0 UV-I 0 W/m 20,6 km/h (4 Bft)
20.04.2013 01:32 7,1 C 6,2 C 84 % 1029,1 hPa 0,0 l/m 0 min 0 min 0,0 UV-I 0 W/m 15,4 km/h (3 Bft)
20.04.2013 01:34 7,1 C 6,2 C 84 % 1029,1 hPa 0,0 l/m 0 min 0 min 0,0 UV-I 0 W/m 18,0 km/h (3 Bft)
20.04.2013 01:36 7,1 C 6,2 C 84 % 1029,1 hPa 0,0 l/m 0 min 0 min 0,0 UV-I 0 W/m 20,6 km/h (4 Bft)
20.04.2013 01:38 7,1 C 6,2 C 84 % 1029,1 hPa 0,0 l/m 0 min 0 min 0,0 UV-I 0 W/m 12,9 km/h (3 Bft)
20.04.2013 01:40 7,1 C 6,2 C 85 % 1029,1 hPa 0,0 l/m 0 min 0 min 0,0 UV-I 0 W/m 15,4 km/h (3 Bft)
20.04.2013 01:42 7,1 C 6,2 C 85 % 1029,1 hPa 0,0 l/m 0 min 0 min 0,0 UV-I 0 W/m 12,9 km/h (3 Bft)
20.04.2013 01:44 7,0 C 5,7 C 85 % 1029,1 hPa 0,0 l/m 0 min 0 min 0,0 UV-I 0 W/m 15,4 km/h (3 Bft)
20.04.2013 01:46 7,0 C 5,7 C 85 % 1029,1 hPa 0,0 l/m 0 min 0 min 0,0 UV-I 0 W/m 15,4 km/h (3 Bft)
20.04.2013 01:48 6,9 C 5,7 C 85 % 1029,2 hPa 0,0 l/m 0 min 0 min 0,0 UV-I 0 W/m 15,4 km/h (3 Bft)
20.04.2013 01:50 6,9 C 5,7 C 85 % 1029,2 hPa 0,0 l/m 0 min 0 min 0,0 UV-I 0 W/m 18,0 km/h (3 Bft)
20.04.2013 01:52 6,8 C 5,7 C 86 % 1029,2 hPa 0,0 l/m 0 min 0 min 0,0 UV-I 0 W/m 20,6 km/h (4 Bft)
20.04.2013 01:54 6,7 C 5,7 C 86 % 1029,1 hPa 0,0 l/m 0 min 0 min 0,0 UV-I 0 W/m 15,4 km/h (3 Bft)
20.04.2013 01:56 6,7 C 5,7 C 86 % 1029,2 hPa 0,0 l/m 0 min 0 min 0,0 UV-I 0 W/m 18,0 km/h (3 Bft)
20.04.2013 01:58 6,6 C 5,7 C 86 % 1029,1 hPa 0,0 l/m 0 min 0 min 0,0 UV-I 0 W/m 18,0 km/h (3 Bft)
20.04.2013 02:00 6,6 C 5,1 C 86 % 1029,2 hPa 0,0 l/m 0 min 0 min 0,0 UV-I 0 W/m 12,9 km/h (3 Bft)
20.04.2013 02:02 6,5 C 5,1 C 86 % 1029,2 hPa 0,0 l/m 0 min 0 min 0,0 UV-I 0 W/m 12,9 km/h (3 Bft)
20.04.2013 02:04 6,4 C 5,1 C 86 % 1029,2 hPa 0,0 l/m 0 min 0 min 0,0 UV-I 0 W/m 18,0 km/h (3 Bft)
20.04.2013 02:06 6,3 C 5,1 C 86 % 1029,2 hPa 0,0 l/m 0 min 0 min 0,0 UV-I 0 W/m 15,4 km/h (3 Bft)
20.04.2013 02:08 6,3 C 5,1 C 87 % 1029,2 hPa 0,0 l/m 0 min 0 min 0,0 UV-I 0 W/m 23,2 km/h (4 Bft)
20.04.2013 02:10 6,2 C 5,1 C 87 % 1029,2 hPa 0,0 l/m 0 min 0 min 0,0 UV-I 0 W/m 18,0 km/h (3 Bft)
20.04.2013 02:12 6,2 C 5,1 C 87 % 1029,3 hPa 0,0 l/m 0 min 0 min 0,0 UV-I 0 W/m 15,4 km/h (3 Bft)
20.04.2013 02:14 6,1 C 5,1 C 87 % 1029,3 hPa 0,0 l/m 0 min 0 min 0,0 UV-I 0 W/m 25,7 km/h (4 Bft)
20.04.2013 02:16 6,1 C 5,1 C 87 % 1029,2 hPa 0,0 l/m 0 min 0 min 0,0 UV-I 0 W/m 15,4 km/h (3 Bft)
20.04.2013 02:18 6,0 C 5,1 C 87 % 1029,3 hPa 0,0 l/m 0 min 0 min 0,0 UV-I 0 W/m 12,9 km/h (3 Bft)
20.04.2013 02:20 6,0 C 5,1 C 87 % 1029,3 hPa 0,0 l/m 0 min 0 min 0,0 UV-I 0 W/m 10,3 km/h (2 Bft)
20.04.2013 02:22 5,9 C 4,6 C 88 % 1029,4 hPa 0,0 l/m 0 min 0 min 0,0 UV-I 0 W/m 10,3 km/h (2 Bft)
20.04.2013 02:24 5,9 C 4,6 C 87 % 1029,3 hPa 0,0 l/m 0 min 0 min 0,0 UV-I 0 W/m 2,6 km/h (1 Bft)
20.04.2013 02:26 5,9 C 4,6 C 88 % 1029,4 hPa 0,0 l/m 0 min 0 min 0,0 UV-I 0 W/m 12,9 km/h (3 Bft)
20.04.2013 02:28 5,8 C 4,6 C 88 % 1029,4 hPa 0,0 l/m 0 min 0 min 0,0 UV-I 0 W/m 15,4 km/h (3 Bft)
20.04.2013 02:30 5,8 C 4,6 C 88 % 1029,4 hPa 0,0 l/m 0 min 0 min 0,0 UV-I 0 W/m 18,0 km/h (3 Bft)
20.04.2013 02:32 5,8 C 4,6 C 88 % 1029,4 hPa 0,0 l/m 0 min 0 min 0,0 UV-I 0 W/m 12,9 km/h (3 Bft)
20.04.2013 02:34 5,7 C 4,6 C 88 % 1029,4 hPa 0,0 l/m 0 min 0 min 0,0 UV-I 0 W/m 12,9 km/h (3 Bft)
20.04.2013 02:36 5,7 C 4,6 C 88 % 1029,4 hPa 0,0 l/m 0 min 0 min 0,0 UV-I 0 W/m 20,6 km/h (4 Bft)
20.04.2013 02:38 5,6 C 4,6 C 88 % 1029,6 hPa 0,0 l/m 0 min 0 min 0,0 UV-I 0 W/m 7,7 km/h (2 Bft)
20.04.2013 02:40 5,6 C 4,6 C 88 % 1029,6 hPa 0,0 l/m 0 min 0 min 0,0 UV-I 0 W/m 10,3 km/h (2 Bft)
20.04.2013 02:42 5,6 C 4,6 C 88 % 1029,6 hPa 0,0 l/m 0 min 0 min 0,0 UV-I 0 W/m 12,9 km/h (3 Bft)
20.04.2013 02:44 5,5 C 4,6 C 88 % 1029,7 hPa 0,0 l/m 0 min 0 min 0,0 UV-I 0 W/m 15,4 km/h (3 Bft)
20.04.2013 02:46 5,4 C 4,6 C 88 % 1029,7 hPa 0,0 l/m 0 min 0 min 0,0 UV-I 0 W/m 12,9 km/h (3 Bft)
20.04.2013 02:48 5,4 C 4,6 C 88 % 1029,7 hPa 0,0 l/m 0 min 0 min 0,0 UV-I 0 W/m 15,4 km/h (3 Bft)
20.04.2013 02:50 5,3 C 4,0 C 88 % 1029,6 hPa 0,0 l/m 0 min 0 min 0,0 UV-I 0 W/m 18,0 km/h (3 Bft)
20.04.2013 02:52 5,3 C 4,0 C 88 % 1029,7 hPa 0,0 l/m 0 min 0 min 0,0 UV-I 0 W/m 15,4 km/h (3 Bft)
20.04.2013 02:54 5,3 C 4,0 C 88 % 1029,7 hPa 0,0 l/m 0 min 0 min 0,0 UV-I 0 W/m 2,6 km/h (1 Bft)
20.04.2013 02:56 5,2 C 4,0 C 88 % 1029,7 hPa 0,0 l/m 0 min 0 min 0,0 UV-I 0 W/m 10,3 km/h (2 Bft)
20.04.2013 02:58 5,2 C 4,0 C 88 % 1029,7 hPa 0,0 l/m 0 min 0 min 0,0 UV-I 0 W/m 7,7 km/h (2 Bft)
20.04.2013 03:00 5,2 C 4,0 C 88 % 1029,7 hPa 0,0 l/m 0 min 0 min 0,0 UV-I 0 W/m 10,3 km/h (2 Bft)
20.04.2013 03:02 5,1 C 4,0 C 88 % 1029,8 hPa 0,0 l/m 0 min 0 min 0,0 UV-I 0 W/m 12,9 km/h (3 Bft)
20.04.2013 03:04 5,1 C 4,0 C 88 % 1029,8 hPa 0,0 l/m 0 min 0 min 0,0 UV-I 0 W/m 12,9 km/h (3 Bft)
20.04.2013 03:06 5,1 C 4,0 C 88 % 1029,8 hPa 0,0 l/m 0 min 0 min 0,0 UV-I 0 W/m 18,0 km/h (3 Bft)
20.04.2013 03:08 5,1 C 4,0 C 88 % 1029,8 hPa 0,0 l/m 0 min 0 min 0,0 UV-I 0 W/m 15,4 km/h (3 Bft)
20.04.2013 03:10 5,1 C 4,0 C 88 % 1029,9 hPa 0,0 l/m 0 min 0 min 0,0 UV-I 0 W/m 10,3 km/h (2 Bft)
20.04.2013 03:12 5,0 C 4,0 C 89 % 1029,9 hPa 0,0 l/m 0 min 0 min 0,0 UV-I 0 W/m 12,9 km/h (3 Bft)
20.04.2013 03:14 5,0 C 4,0 C 93 % 1029,9 hPa 0,0 l/m 0 min 0 min 0,0 UV-I 0 W/m 18,0 km/h (3 Bft)
20.04.2013 03:16 4,9 C 4,0 C 88 % 1029,8 hPa 0,0 l/m 0 min 0 min 0,0 UV-I 0 W/m 12,9 km/h (3 Bft)
20.04.2013 03:18 4,9 C 4,0 C 89 % 1029,9 hPa 0,0 l/m 0 min 0 min 0,0 UV-I 0 W/m 7,7 km/h (2 Bft)
20.04.2013 03:20 4,9 C 4,0 C 89 % 1029,9 hPa 0,0 l/m 0 min 0 min 0,0 UV-I 0 W/m 7,7 km/h (2 Bft)
20.04.2013 03:22 4,8 C 4,0 C 89 % 1029,9 hPa 0,0 l/m 0 min 0 min 0,0 UV-I 0 W/m 7,7 km/h (2 Bft)
20.04.2013 03:24 4,8 C 4,0 C 89 % 1029,8 hPa 0,0 l/m 0 min 0 min 0,0 UV-I 0 W/m 15,4 km/h (3 Bft)
20.04.2013 03:26 4,8 C 4,0 C 89 % 1029,8 hPa 0,0 l/m 0 min 0 min 0,0 UV-I 0 W/m 10,3 km/h (2 Bft)
20.04.2013 03:28 4,8 C 3,4 C 89 % 1029,9 hPa 0,0 l/m 0 min 0 min 0,0 UV-I 0 W/m 10,3 km/h (2 Bft)
20.04.2013 03:30 4,7 C 3,4 C 89 % 1029,9 hPa 0,0 l/m 0 min 0 min 0,0 UV-I 0 W/m 10,3 km/h (2 Bft)
20.04.2013 03:32 4,7 C 3,4 C 89 % 1030,0 hPa 0,0 l/m 0 min 0 min 0,0 UV-I 0 W/m 12,9 km/h (3 Bft)
20.04.2013 03:34 4,7 C 3,4 C 89 % 1030,0 hPa 0,0 l/m 0 min 0 min 0,0 UV-I 0 W/m 10,3 km/h (2 Bft)
20.04.2013 03:36 4,7 C 3,4 C 89 % 1029,9 hPa 0,0 l/m 0 min 0 min 0,0 UV-I 0 W/m 15,4 km/h (3 Bft)
20.04.2013 03:38 4,6 C 3,4 C 89 % 1029,9 hPa 0,0 l/m 0 min 0 min 0,0 UV-I 0 W/m 7,7 km/h (2 Bft)
20.04.2013 03:40 4,6 C 3,4 C 89 % 1030,0 hPa 0,0 l/m 0 min 0 min 0,0 UV-I 0 W/m 10,3 km/h (2 Bft)
20.04.2013 03:42 4,6 C 3,4 C 89 % 1030,1 hPa 0,0 l/m 0 min 0 min 0,0 UV-I 0 W/m 7,7 km/h (2 Bft)
20.04.2013 03:44 4,5 C 3,4 C 89 % 1030,0 hPa 0,0 l/m 0 min 0 min 0,0 UV-I 0 W/m 18,0 km/h (3 Bft)
20.04.2013 03:46 4,5 C 3,4 C 89 % 1030,0 hPa 0,0 l/m 0 min 0 min 0,0 UV-I 0 W/m 10,3 km/h (2 Bft)
20.04.2013 03:48 4,4 C 3,4 C 89 % 1030,0 hPa 0,0 l/m 0 min 0 min 0,0 UV-I 0 W/m 12,9 km/h (3 Bft)
20.04.2013 03:50 4,4 C 3,4 C 89 % 1030,0 hPa 0,0 l/m 0 min 0 min 0,0 UV-I 0 W/m 10,3 km/h (2 Bft)
20.04.2013 03:52 4,4 C 3,4 C 89 % 1030,1 hPa 0,0 l/m 0 min 0 min 0,0 UV-I 0 W/m 10,3 km/h (2 Bft)
20.04.2013 03:54 4,3 C 3,4 C 89 % 1030,1 hPa 0,0 l/m 0 min 0 min 0,0 UV-I 0 W/m 12,9 km/h (3 Bft)
20.04.2013 03:56 4,3 C 3,4 C 89 % 1030,2 hPa 0,0 l/m 0 min 0 min 0,0 UV-I 0 W/m 12,9 km/h (3 Bft)
20.04.2013 03:58 4,3 C 3,4 C 89 % 1030,1 hPa 0,0 l/m 0 min 0 min 0,0 UV-I 0 W/m 7,7 km/h (2 Bft)
20.04.2013 04:00 4,3 C 3,4 C 90 % 1030,2 hPa 0,0 l/m 0 min 0 min 0,0 UV-I 0 W/m 15,4 km/h (3 Bft)
20.04.2013 04:02 4,3 C 3,4 C 90 % 1030,1 hPa 0,0 l/m 0 min 0 min 0,0 UV-I 0 W/m 5,1 km/h (1 Bft)
20.04.2013 04:04 4,2 C 3,4 C 90 % 1030,2 hPa 0,0 l/m 0 min 0 min 0,0 UV-I 0 W/m 10,3 km/h (2 Bft)
20.04.2013 04:06 4,2 C 3,4 C 90 % 1030,3 hPa 0,0 l/m 0 min 0 min 0,0 UV-I 0 W/m 12,9 km/h (3 Bft)
20.04.2013 04:08 4,2 C 2,9 C 90 % 1030,2 hPa 0,0 l/m 0 min 0 min 0,0 UV-I 0 W/m 10,3 km/h (2 Bft)
20.04.2013 04:10 4,2 C 2,9 C 90 % 1030,2 hPa 0,0 l/m 0 min 0 min 0,0 UV-I 0 W/m 10,3 km/h (2 Bft)
20.04.2013 04:12 4,1 C 2,9 C 90 % 1030,3 hPa 0,0 l/m 0 min 0 min 0,0 UV-I 0 W/m 7,7 km/h (2 Bft)
20.04.2013 04:14 4,1 C 2,9 C 91 % 1030,3 hPa 0,0 l/m 0 min 0 min 0,0 UV-I 0 W/m 10,3 km/h (2 Bft)
20.04.2013 04:16 4,1 C 2,9 C 91 % 1030,3 hPa 0,0 l/m 0 min 0 min 0,0 UV-I 0 W/m 10,3 km/h (2 Bft)
20.04.2013 04:18 4,1 C 2,9 C 91 % 1030,4 hPa 0,0 l/m 0 min 0 min 0,0 UV-I 0 W/m 10,3 km/h (2 Bft)
20.04.2013 04:20 4,0 C 2,9 C 91 % 1030,3 hPa 0,0 l/m 0 min 0 min 0,0 UV-I 0 W/m 10,3 km/h (2 Bft)
20.04.2013 04:22 4,0 C 2,9 C 91 % 1030,3 hPa 0,0 l/m 0 min 0 min 0,0 UV-I 0 W/m 7,7 km/h (2 Bft)
20.04.2013 04:24 3,9 C 2,9 C 91 % 1030,3 hPa 0,0 l/m 0 min 0 min 0,0 UV-I 0 W/m 12,9 km/h (3 Bft)
20.04.2013 04:26 3,9 C 2,9 C 91 % 1030,2 hPa 0,0 l/m 0 min 0 min 0,0 UV-I 0 W/m 12,9 km/h (3 Bft)
20.04.2013 04:28 3,9 C 2,9 C 91 % 1030,3 hPa 0,0 l/m 0 min 0 min 0,0 UV-I 0 W/m 15,4 km/h (3 Bft)
20.04.2013 04:30 3,9 C 2,9 C 91 % 1030,3 hPa 0,0 l/m 0 min 0 min 0,0 UV-I 0 W/m 10,3 km/h (2 Bft)
20.04.2013 04:32 3,8 C 2,9 C 91 % 1030,3 hPa 0,0 l/m 0 min 0 min 0,0 UV-I 0 W/m 12,9 km/h (3 Bft)
20.04.2013 04:34 3,8 C 2,9 C 92 % 1030,3 hPa 0,0 l/m 0 min 0 min 0,0 UV-I 0 W/m 12,9 km/h (3 Bft)
20.04.2013 04:36 3,8 C 2,9 C 92 % 1030,3 hPa 0,0 l/m 0 min 0 min 0,0 UV-I 0 W/m 12,9 km/h (3 Bft)
20.04.2013 04:38 3,8 C 2,9 C 92 % 1030,3 hPa 0,0 l/m 0 min 0 min 0,0 UV-I 0 W/m 10,3 km/h (2 Bft)
20.04.2013 04:40 3,8 C 2,9 C 92 % 1030,2 hPa 0,0 l/m 0 min 0 min 0,0 UV-I 0 W/m 10,3 km/h (2 Bft)
20.04.2013 04:42 3,7 C 2,9 C 92 % 1030,3 hPa 0,0 l/m 0 min 0 min 0,0 UV-I 0 W/m 7,7 km/h (2 Bft)
20.04.2013 04:44 3,7 C 2,9 C 92 % 1030,3 hPa 0,0 l/m 0 min 0 min 0,0 UV-I 0 W/m 7,7 km/h (2 Bft)
20.04.2013 04:46 3,7 C 2,9 C 92 % 1030,3 hPa 0,0 l/m 0 min 0 min 0,0 UV-I 0 W/m 10,3 km/h (2 Bft)
20.04.2013 04:48 3,7 C 2,3 C 92 % 1030,3 hPa 0,0 l/m 0 min 0 min 0,0 UV-I 0 W/m 15,4 km/h (3 Bft)
20.04.2013 04:50 3,6 C 2,9 C 92 % 1030,3 hPa 0,0 l/m 0 min 0 min 0,0 UV-I 0 W/m 12,9 km/h (3 Bft)
20.04.2013 04:52 3,6 C 2,3 C 92 % 1030,3 hPa 0,0 l/m 0 min 0 min 0,0 UV-I 0 W/m 12,9 km/h (3 Bft)
20.04.2013 04:54 3,6 C 2,3 C 92 % 1030,3 hPa 0,0 l/m 0 min 0 min 0,0 UV-I 0 W/m 12,9 km/h (3 Bft)
20.04.2013 04:56 3,6 C 2,3 C 93 % 1030,3 hPa 0,0 l/m 0 min 0 min 0,0 UV-I 0 W/m 12,9 km/h (3 Bft)
20.04.2013 04:58 3,5 C 2,3 C 92 % 1030,3 hPa 0,0 l/m 0 min 0 min 0,0 UV-I 0 W/m 12,9 km/h (3 Bft)
20.04.2013 05:00 3,5 C 2,3 C 93 % 1030,3 hPa 0,0 l/m 0 min 0 min 0,0 UV-I 0 W/m 7,7 km/h (2 Bft)
20.04.2013 05:02 3,5 C 2,3 C 93 % 1030,3 hPa 0,0 l/m 0 min 0 min 0,0 UV-I 0 W/m 5,1 km/h (1 Bft)
20.04.2013 05:04 3,4 C 2,3 C 93 % 1030,4 hPa 0,0 l/m 0 min 0 min 0,0 UV-I 0 W/m 12,9 km/h (3 Bft)
20.04.2013 05:06 3,4 C 2,3 C 93 % 1030,5 hPa 0,0 l/m 0 min 0 min 0,0 UV-I 0 W/m 15,4 km/h (3 Bft)
20.04.2013 05:08 3,4 C 2,3 C 93 % 1030,5 hPa 0,0 l/m 0 min 0 min 0,0 UV-I 0 W/m 12,9 km/h (3 Bft)
20.04.2013 05:10 3,4 C 2,3 C 93 % 1030,6 hPa 0,0 l/m 0 min 0 min 0,0 UV-I 0 W/m 12,9 km/h (3 Bft)
20.04.2013 05:12 3,3 C 2,3 C 93 % 1030,6 hPa 0,0 l/m 0 min 0 min 0,0 UV-I 0 W/m 12,9 km/h (3 Bft)
20.04.2013 05:14 3,3 C 2,3 C 93 % 1030,6 hPa 0,0 l/m 0 min 0 min 0,0 UV-I 0 W/m 10,3 km/h (2 Bft)
20.04.2013 05:16 3,3 C 2,3 C 93 % 1030,7 hPa 0,0 l/m 0 min 0 min 0,0 UV-I 0 W/m 10,3 km/h (2 Bft)
20.04.2013 05:18 3,3 C 2,3 C 93 % 1030,7 hPa 0,0 l/m 0 min 0 min 0,0 UV-I 0 W/m 12,9 km/h (3 Bft)
20.04.2013 05:20 3,3 C 2,3 C 93 % 1030,6 hPa 0,0 l/m 0 min 0 min 0,0 UV-I 0 W/m 10,3 km/h (2 Bft)
20.04.2013 05:22 3,3 C 2,3 C 93 % 1030,5 hPa 0,0 l/m 0 min 0 min 0,0 UV-I 0 W/m 12,9 km/h (3 Bft)
20.04.2013 05:24 3,3 C 2,3 C 93 % 1030,5 hPa 0,0 l/m 0 min 0 min 0,0 UV-I 0 W/m 10,3 km/h (2 Bft)
20.04.2013 05:26 3,2 C 2,3 C 93 % 1030,6 hPa 0,0 l/m 0 min 0 min 0,0 UV-I 0 W/m 10,3 km/h (2 Bft)
20.04.2013 05:28 3,2 C 2,3 C 93 % 1030,6 hPa 0,0 l/m 0 min 0 min 0,0 UV-I 0 W/m 12,9 km/h (3 Bft)
20.04.2013 05:30 3,2 C 2,3 C 93 % 1030,6 hPa 0,0 l/m 0 min 0 min 0,0 UV-I 0 W/m 18,0 km/h (3 Bft)
20.04.2013 05:32 3,2 C 2,3 C 94 % 1030,5 hPa 0,0 l/m 0 min 0 min 0,0 UV-I 0 W/m 10,3 km/h (2 Bft)
20.04.2013 05:34 3,2 C 2,3 C 94 % 1030,5 hPa 0,0 l/m 0 min 0 min 0,0 UV-I 0 W/m 10,3 km/h (2 Bft)
20.04.2013 05:36 3,2 C 2,3 C 94 % 1030,4 hPa 0,0 l/m 0 min 0 min 0,0 UV-I 0 W/m 7,7 km/h (2 Bft)
20.04.2013 05:38 3,2 C 2,3 C 94 % 1030,4 hPa 0,0 l/m 0 min 0 min 0,0 UV-I 0 W/m 7,7 km/h (2 Bft)
20.04.2013 05:40 3,1 C 2,3 C 94 % 1030,5 hPa 0,0 l/m 0 min 0 min 0,0 UV-I 0 W/m 15,4 km/h (3 Bft)
20.04.2013 05:42 3,1 C 2,3 C 94 % 1030,5 hPa 0,0 l/m 0 min 0 min 0,0 UV-I 0 W/m 10,3 km/h (2 Bft)
20.04.2013 05:44 3,1 C 2,3 C 94 % 1030,5 hPa 0,0 l/m 0 min 0 min 0,0 UV-I 0 W/m 12,9 km/h (3 Bft)
20.04.2013 05:46 3,1 C 2,3 C 94 % 1030,5 hPa 0,0 l/m 0 min 0 min 0,0 UV-I 0 W/m 15,4 km/h (3 Bft)
20.04.2013 05:48 3,1 C 2,3 C 94 % 1030,5 hPa 0,0 l/m 0 min 0 min 0,0 UV-I 0 W/m 12,9 km/h (3 Bft)
20.04.2013 05:50 3,1 C 2,3 C 94 % 1030,5 hPa 0,0 l/m 0 min 0 min 0,0 UV-I 0 W/m 12,9 km/h (3 Bft)
20.04.2013 05:52 3,0 C 2,3 C 94 % 1030,4 hPa 0,0 l/m 0 min 0 min 0,0 UV-I 0 W/m 12,9 km/h (3 Bft)
20.04.2013 05:54 3,0 C 2,3 C 94 % 1030,4 hPa 0,0 l/m 0 min 0 min 0,0 UV-I 0 W/m 10,3 km/h (2 Bft)
20.04.2013 05:56 2,9 C 1,8 C 94 % 1030,4 hPa 0,0 l/m 0 min 0 min 0,0 UV-I 0 W/m 7,7 km/h (2 Bft)
20.04.2013 05:58 2,9 C 1,8 C 94 % 1030,5 hPa 0,0 l/m 0 min 0 min 0,0 UV-I 0 W/m 7,7 km/h (2 Bft)
20.04.2013 06:00 2,9 C 1,8 C 94 % 1030,5 hPa 0,0 l/m 0 min 0 min 0,0 UV-I 0 W/m 10,3 km/h (2 Bft)
20.04.2013 06:02 2,9 C 1,8 C 94 % 1030,5 hPa 0,0 l/m 0 min 0 min 0,0 UV-I 0 W/m 7,7 km/h (2 Bft)
20.04.2013 06:04 2,9 C 1,8 C 94 % 1030,4 hPa 0,0 l/m 0 min 0 min 0,0 UV-I 0 W/m 10,3 km/h (2 Bft)
20.04.2013 06:06 2,9 C 1,8 C 94 % 1030,4 hPa 0,0 l/m 0 min 0 min 0,0 UV-I 0 W/m 7,7 km/h (2 Bft)
20.04.2013 06:08 2,9 C 1,8 C 94 % 1030,5 hPa 0,0 l/m 0 min 0 min 0,0 UV-I 0 W/m 10,3 km/h (2 Bft)
20.04.2013 06:10 2,8 C 1,8 C 94 % 1030,5 hPa 0,0 l/m 0 min 0 min 0,0 UV-I 0 W/m 5,1 km/h (1 Bft)
20.04.2013 06:12 2,8 C 1,8 C 94 % 1030,5 hPa 0,0 l/m 0 min 0 min 0,0 UV-I 0 W/m 2,6 km/h (1 Bft)
20.04.2013 06:14 2,8 C 1,8 C 94 % 1030,5 hPa 0,0 l/m 0 min 0 min 0,0 UV-I 0 W/m 7,7 km/h (2 Bft)
20.04.2013 06:16 2,8 C 1,8 C 94 % 1030,6 hPa 0,0 l/m 0 min 0 min 0,0 UV-I 0 W/m 10,3 km/h (2 Bft)
20.04.2013 06:18 2,8 C 1,8 C 94 % 1030,5 hPa 0,0 l/m 0 min 0 min 0,0 UV-I 0 W/m 10,3 km/h (2 Bft)
20.04.2013 06:20 2,8 C 1,8 C 94 % 1030,5 hPa 0,0 l/m 0 min 0 min 0,0 UV-I 0 W/m 10,3 km/h (2 Bft)
20.04.2013 06:22 2,8 C 1,8 C 94 % 1030,5 hPa 0,0 l/m 0 min 0 min 0,0 UV-I 0 W/m 10,3 km/h (2 Bft)
20.04.2013 06:24 2,7 C 1,8 C 94 % 1030,5 hPa 0,0 l/m 0 min 0 min 0,0 UV-I 0 W/m 7,7 km/h (2 Bft)
20.04.2013 06:26 2,7 C 1,8 C 94 % 1030,5 hPa 0,0 l/m 0 min 0 min 0,0 UV-I 0 W/m 7,7 km/h (2 Bft)
20.04.2013 06:28 2,7 C 1,8 C 94 % 1030,5 hPa 0,0 l/m 0 min 0 min 0,0 UV-I 0 W/m 7,7 km/h (2 Bft)
20.04.2013 06:30 2,7 C 1,8 C 94 % 1030,6 hPa 0,0 l/m 0 min 0 min 0,0 UV-I 0 W/m 2,6 km/h (1 Bft)
20.04.2013 06:32 2,7 C 1,8 C 94 % 1030,5 hPa 0,0 l/m 0 min 0 min 0,0 UV-I 0 W/m 0,0 km/h (0 Bft)
20.04.2013 06:34 2,7 C 1,8 C 94 % 1030,5 hPa 0,0 l/m 0 min 0 min 0,0 UV-I 5 W/m 7,7 km/h (2 Bft)
20.04.2013 06:36 2,7 C 1,8 C 94 % 1030,6 hPa 0,0 l/m 0 min 0 min 0,0 UV-I 5 W/m 5,1 km/h (1 Bft)
20.04.2013 06:38 2,7 C 1,8 C 94 % 1030,6 hPa 0,0 l/m 0 min 0 min 0,0 UV-I 5 W/m 7,7 km/h (2 Bft)
20.04.2013 06:40 2,6 C 1,8 C 94 % 1030,6 hPa 0,0 l/m 0 min 0 min 0,0 UV-I 7 W/m 7,7 km/h (2 Bft)
20.04.2013 06:42 2,6 C 1,8 C 94 % 1030,6 hPa 0,0 l/m 0 min 0 min 0,0 UV-I 9 W/m 5,1 km/h (1 Bft)
20.04.2013 06:44 2,6 C 1,8 C 94 % 1030,7 hPa 0,0 l/m 0 min 0 min 0,0 UV-I 9 W/m 2,6 km/h (1 Bft)
20.04.2013 06:46 2,6 C 1,8 C 94 % 1030,7 hPa 0,0 l/m 0 min 0 min 0,0 UV-I 11 W/m 10,3 km/h (2 Bft)
20.04.2013 06:48 2,6 C 1,8 C 94 % 1030,7 hPa 0,0 l/m 0 min 0 min 0,0 UV-I 12 W/m 12,9 km/h (3 Bft)
20.04.2013 06:50 2,6 C 1,8 C 94 % 1030,7 hPa 0,0 l/m 0 min 0 min 0,0 UV-I 12 W/m 10,3 km/h (2 Bft)
20.04.2013 06:52 2,6 C 1,8 C 94 % 1030,8 hPa 0,0 l/m 0 min 0 min 0,0 UV-I 14 W/m 15,4 km/h (3 Bft)
20.04.2013 06:54 2,6 C 1,8 C 94 % 1030,7 hPa 0,0 l/m 0 min 0 min 0,0 UV-I 16 W/m 10,3 km/h (2 Bft)
20.04.2013 06:56 2,6 C 1,8 C 94 % 1030,8 hPa 0,0 l/m 0 min 0 min 0,0 UV-I 16 W/m 7,7 km/h (2 Bft)
20.04.2013 06:58 2,6 C 1,8 C 94 % 1030,7 hPa 0,0 l/m 0 min 0 min 0,0 UV-I 16 W/m 7,7 km/h (2 Bft)
20.04.2013 07:00 2,6 C 1,8 C 94 % 1030,7 hPa 0,0 l/m 0 min 0 min 0,0 UV-I 18 W/m 7,7 km/h (2 Bft)
20.04.2013 07:02 2,6 C 1,8 C 94 % 1030,7 hPa 0,0 l/m 0 min 0 min 0,0 UV-I 18 W/m 5,1 km/h (1 Bft)
20.04.2013 07:04 2,6 C 1,8 C 94 % 1030,8 hPa 0,0 l/m 0 min 0 min 0,0 UV-I 19 W/m 7,7 km/h (2 Bft)
20.04.2013 07:06 2,6 C 1,8 C 94 % 1031,0 hPa 0,0 l/m 0 min 0 min 0,0 UV-I 19 W/m 10,3 km/h (2 Bft)
20.04.2013 07:08 2,6 C 1,8 C 94 % 1030,9 hPa 0,0 l/m 0 min 0 min 0,0 UV-I 21 W/m 7,7 km/h (2 Bft)
20.04.2013 07:10 2,6 C 1,8 C 94 % 1031,0 hPa 0,0 l/m 0 min 0 min 0,0 UV-I 21 W/m 7,7 km/h (2 Bft)
20.04.2013 07:12 2,6 C 1,8 C 94 % 1030,9 hPa 0,0 l/m 0 min 0 min 0,0 UV-I 23 W/m 7,7 km/h (2 Bft)
20.04.2013 07:14 2,6 C 1,8 C 94 % 1031,0 hPa 0,0 l/m 0 min 0 min 0,0 UV-I 23 W/m 7,7 km/h (2 Bft)
20.04.2013 07:16 2,6 C 1,8 C 94 % 1030,9 hPa 0,0 l/m 0 min 0 min 0,0 UV-I 23 W/m 10,3 km/h (2 Bft)
20.04.2013 07:18 2,7 C 1,8 C 94 % 1030,8 hPa 0,0 l/m 0 min 0 min 0,0 UV-I 23 W/m 10,3 km/h (2 Bft)
20.04.2013 07:20 2,7 C 1,8 C 94 % 1030,8 hPa 0,0 l/m 0 min 0 min 0,0 UV-I 25 W/m 12,9 km/h (3 Bft)
20.04.2013 07:22 2,7 C 1,8 C 94 % 1030,8 hPa 0,0 l/m 0 min 0 min 0,0 UV-I 28 W/m 12,9 km/h (3 Bft)
20.04.2013 07:24 2,7 C 1,8 C 94 % 1030,8 hPa 0,0 l/m 0 min 0 min 0,0 UV-I 28 W/m 10,3 km/h (2 Bft)
20.04.2013 07:26 2,7 C 1,8 C 93 % 1030,8 hPa 0,0 l/m 0 min 0 min 0,0 UV-I 30 W/m 12,9 km/h (3 Bft)
20.04.2013 07:28 2,7 C 2,3 C 94 % 1030,8 hPa 0,0 l/m 0 min 0 min 0,0 UV-I 32 W/m 18,0 km/h (3 Bft)
20.04.2013 07:30 2,7 C 2,3 C 94 % 1030,9 hPa 0,0 l/m 0 min 0 min 0,0 UV-I 30 W/m 12,9 km/h (3 Bft)
20.04.2013 07:32 2,7 C 2,3 C 94 % 1030,9 hPa 0,0 l/m 0 min 0 min 0,0 UV-I 28 W/m 10,3 km/h (2 Bft)
20.04.2013 07:34 2,8 C 2,3 C 94 % 1030,8 hPa 0,0 l/m 0 min 0 min 0,0 UV-I 28 W/m 10,3 km/h (2 Bft)
20.04.2013 07:36 2,8 C 2,3 C 93 % 1030,8 hPa 0,0 l/m 0 min 0 min 0,0 UV-I 30 W/m 10,3 km/h (2 Bft)
20.04.2013 07:38 2,8 C 2,3 C 93 % 1031,0 hPa 0,0 l/m 0 min 0 min 0,0 UV-I 30 W/m 10,3 km/h (2 Bft)
20.04.2013 07:40 2,8 C 2,3 C 93 % 1030,9 hPa 0,0 l/m 0 min 0 min 0,0 UV-I 30 W/m 7,7 km/h (2 Bft)
20.04.2013 07:42 2,8 C 2,3 C 93 % 1030,9 hPa 0,0 l/m 0 min 0 min 0,0 UV-I 30 W/m 12,9 km/h (3 Bft)
20.04.2013 07:44 2,8 C 2,3 C 93 % 1030,9 hPa 0,0 l/m 0 min 0 min 0,0 UV-I 32 W/m 18,0 km/h (3 Bft)
20.04.2013 07:46 2,8 C 2,3 C 93 % 1030,9 hPa 0,0 l/m 0 min 0 min 0,0 UV-I 33 W/m 18,0 km/h (3 Bft)
20.04.2013 07:48 2,8 C 2,3 C 93 % 1030,9 hPa 0,0 l/m 0 min 0 min 0,0 UV-I 32 W/m 12,9 km/h (3 Bft)
20.04.2013 07:50 2,8 C 2,3 C 93 % 1030,8 hPa 0,0 l/m 0 min 0 min 0,0 UV-I 33 W/m 5,1 km/h (1 Bft)
20.04.2013 07:52 2,9 C 2,3 C 93 % 1030,7 hPa 0,0 l/m 0 min 0 min 0,0 UV-I 35 W/m 10,3 km/h (2 Bft)
20.04.2013 07:54 2,9 C 2,3 C 93 % 1030,8 hPa 0,0 l/m 0 min 0 min 0,0 UV-I 39 W/m 12,9 km/h (3 Bft)
20.04.2013 07:56 2,9 C 2,3 C 93 % 1030,8 hPa 0,0 l/m 0 min 0 min 0,0 UV-I 42 W/m 15,4 km/h (3 Bft)
20.04.2013 07:58 2,9 C 2,3 C 93 % 1030,8 hPa 0,0 l/m 0 min 0 min 0,0 UV-I 44 W/m 15,4 km/h (3 Bft)
20.04.2013 08:00 2,9 C 2,3 C 93 % 1030,9 hPa 0,0 l/m 0 min 0 min 0,0 UV-I 46 W/m 12,9 km/h (3 Bft)
20.04.2013 08:02 2,9 C 2,3 C 92 % 1030,9 hPa 0,0 l/m 0 min 0 min 0,0 UV-I 46 W/m 12,9 km/h (3 Bft)
20.04.2013 08:04 3,0 C 2,3 C 92 % 1030,8 hPa 0,0 l/m 0 min 0 min 0,0 UV-I 46 W/m 12,9 km/h (3 Bft)
20.04.2013 08:06 3,1 C 2,3 C 92 % 1030,9 hPa 0,0 l/m 0 min 0 min 0,0 UV-I 46 W/m 15,4 km/h (3 Bft)
20.04.2013 08:08 3,1 C 2,3 C 92 % 1030,8 hPa 0,0 l/m 0 min 0 min 0,0 UV-I 46 W/m 12,9 km/h (3 Bft)
20.04.2013 08:10 3,1 C 2,9 C 92 % 1031,0 hPa 0,0 l/m 0 min 0 min 0,0 UV-I 47 W/m 15,4 km/h (3 Bft)
20.04.2013 08:12 3,2 C 2,9 C 92 % 1031,0 hPa 0,0 l/m 0 min 0 min 0,0 UV-I 51 W/m 15,4 km/h (3 Bft)
20.04.2013 08:14 3,2 C 2,9 C 92 % 1031,0 hPa 0,0 l/m 0 min 0 min 0,0 UV-I 47 W/m 10,3 km/h (2 Bft)
20.04.2013 08:16 3,2 C 2,9 C 92 % 1031,0 hPa 0,0 l/m 0 min 0 min 0,0 UV-I 49 W/m 10,3 km/h (2 Bft)
20.04.2013 08:18 3,3 C 2,9 C 92 % 1031,0 hPa 0,0 l/m 0 min 0 min 0,0 UV-I 51 W/m 12,9 km/h (3 Bft)
20.04.2013 08:20 3,3 C 2,9 C 92 % 1031,0 hPa 0,0 l/m 0 min 0 min 0,0 UV-I 51 W/m 15,4 km/h (3 Bft)
20.04.2013 08:22 3,4 C 2,9 C 91 % 1031,0 hPa 0,0 l/m 0 min 0 min 0,0 UV-I 51 W/m 20,6 km/h (4 Bft)
20.04.2013 08:24 3,4 C 2,9 C 91 % 1031,0 hPa 0,0 l/m 0 min 0 min 0,0 UV-I 51 W/m 15,4 km/h (3 Bft)
20.04.2013 08:26 3,5 C 2,9 C 91 % 1031,0 hPa 0,0 l/m 0 min 0 min 0,0 UV-I 51 W/m 18,0 km/h (3 Bft)
20.04.2013 08:28 3,6 C 3,4 C 91 % 1031,0 hPa 0,0 l/m 0 min 0 min 0,0 UV-I 51 W/m 15,4 km/h (3 Bft)
20.04.2013 08:30 3,6 C 3,4 C 91 % 1031,0 hPa 0,0 l/m 0 min 0 min 0,0 UV-I 49 W/m 18,0 km/h (3 Bft)
20.04.2013 08:32 3,7 C 3,4 C 90 % 1031,0 hPa 0,0 l/m 0 min 0 min 0,0 UV-I 47 W/m 15,4 km/h (3 Bft)
20.04.2013 08:34 3,7 C 3,4 C 90 % 1031,1 hPa 0,0 l/m 0 min 0 min 0,0 UV-I 49 W/m 15,4 km/h (3 Bft)
20.04.2013 08:36 3,8 C 3,4 C 89 % 1031,0 hPa 0,0 l/m 0 min 0 min 0,0 UV-I 47 W/m 20,6 km/h (4 Bft)
20.04.2013 08:38 3,8 C 3,4 C 89 % 1031,0 hPa 0,0 l/m 0 min 0 min 0,0 UV-I 47 W/m 20,6 km/h (4 Bft)
20.04.2013 08:40 3,9 C 3,4 C 88 % 1031,1 hPa 0,0 l/m 0 min 0 min 0,0 UV-I 47 W/m 20,6 km/h (4 Bft)
20.04.2013 08:42 3,9 C 3,4 C 88 % 1031,0 hPa 0,0 l/m 0 min 0 min 0,0 UV-I 47 W/m 10,3 km/h (2 Bft)
20.04.2013 08:44 4,0 C 3,4 C 88 % 1031,1 hPa 0,0 l/m 0 min 0 min 0,0 UV-I 47 W/m 7,7 km/h (2 Bft)
20.04.2013 08:46 4,1 C 3,4 C 88 % 1031,1 hPa 0,0 l/m 0 min 0 min 0,0 UV-I 46 W/m 15,4 km/h (3 Bft)
20.04.2013 08:48 4,2 C 4,0 C 88 % 1031,0 hPa 0,0 l/m 0 min 0 min 0,0 UV-I 47 W/m 10,3 km/h (2 Bft)
20.04.2013 08:50 4,2 C 4,0 C 87 % 1031,0 hPa 0,0 l/m 0 min 0 min 0,0 UV-I 47 W/m 10,3 km/h (2 Bft)
20.04.2013 08:52 4,3 C 4,0 C 88 % 1031,1 hPa 0,0 l/m 0 min 0 min 0,0 UV-I 47 W/m 2,6 km/h (1 Bft)
20.04.2013 08:54 4,4 C 4,0 C 87 % 1031,1 hPa 0,0 l/m 0 min 0 min 0,0 UV-I 49 W/m 12,9 km/h (3 Bft)
20.04.2013 08:56 4,6 C 4,0 C 87 % 1031,1 hPa 0,0 l/m 0 min 0 min 0,0 UV-I 49 W/m 5,1 km/h (1 Bft)
20.04.2013 08:58 4,7 C 4,0 C 86 % 1031,1 hPa 0,0 l/m 0 min 0 min 0,0 UV-I 49 W/m 15,4 km/h (3 Bft)
20.04.2013 09:00 4,7 C 4,0 C 85 % 1031,1 hPa 0,0 l/m 0 min 0 min 0,0 UV-I 49 W/m 15,4 km/h (3 Bft)
20.04.2013 09:02 4,8 C 4,6 C 84 % 1031,2 hPa 0,0 l/m 0 min 0 min 0,0 UV-I 46 W/m 25,7 km/h (4 Bft)
20.04.2013 09:04 4,9 C 4,0 C 82 % 1031,1 hPa 0,0 l/m 0 min 0 min 0,0 UV-I 49 W/m 20,6 km/h (4 Bft)
20.04.2013 09:06 4,9 C 4,0 C 82 % 1031,1 hPa 0,0 l/m 0 min 0 min 0,0 UV-I 56 W/m 20,6 km/h (4 Bft)
20.04.2013 09:08 4,9 C 4,0 C 82 % 1031,1 hPa 0,0 l/m 0 min 0 min 0,0 UV-I 62 W/m 20,6 km/h (4 Bft)
20.04.2013 09:10 5,0 C 4,6 C 86 % 1031,1 hPa 0,0 l/m 0 min 0 min 0,0 UV-I 72 W/m 20,6 km/h (4 Bft)
20.04.2013 09:12 5,1 C 4,6 C 81 % 1031,1 hPa 0,0 l/m 0 min 0 min 0,0 UV-I 97 W/m 20,6 km/h (4 Bft)
20.04.2013 09:14 5,1 C 4,6 C 81 % 1031,1 hPa 0,0 l/m 0 min 0 min 0,0 UV-I 120 W/m 18,0 km/h (3 Bft)
20.04.2013 09:16 5,2 C 4,6 C 81 % 1031,1 hPa 0,0 l/m 0 min 0 min 0,0 UV-I 142 W/m 12,9 km/h (3 Bft)
20.04.2013 09:18 5,3 C 5,1 C 80 % 1031,1 hPa 0,0 l/m 0 min 0 min 0,0 UV-I 195 W/m 12,9 km/h (3 Bft)
20.04.2013 09:20 5,4 C 5,1 C 80 % 1031,0 hPa 0,0 l/m 0 min 0 min 0,0 UV-I 225 W/m 15,4 km/h (3 Bft)
20.04.2013 09:22 5,6 C 5,1 C 79 % 1031,1 hPa 0,0 l/m 2 min 0 min 0,0 UV-I 258 W/m 12,9 km/h (3 Bft)
20.04.2013 09:24 5,7 C 5,7 C 77 % 1031,0 hPa 0,0 l/m 2 min 0 min 0,0 UV-I 301 W/m 12,9 km/h (3 Bft)
20.04.2013 09:26 5,8 C 5,7 C 76 % 1031,1 hPa 0,0 l/m 2 min 0 min 0,0 UV-I 329 W/m 15,4 km/h (3 Bft)
20.04.2013 09:28 5,9 C 5,7 C 75 % 1031,1 hPa 0,0 l/m 2 min 0 min 0,0 UV-I 350 W/m 15,4 km/h (3 Bft)
20.04.2013 09:30 6,1 C 5,7 C 74 % 1031,1 hPa 0,0 l/m 2 min 0 min 0,0 UV-I 369 W/m 15,4 km/h (3 Bft)
20.04.2013 09:32 6,1 C 6,2 C 73 % 1031,1 hPa 0,0 l/m 2 min 0 min 0,0 UV-I 378 W/m 15,4 km/h (3 Bft)
20.04.2013 09:34 6,2 C 8,4 C 73 % 1031,2 hPa 0,0 l/m 2 min 0 min 0,0 UV-I 385 W/m 20,6 km/h (4 Bft)
20.04.2013 09:36 6,3 C 10,1 C 73 % 1031,1 hPa 0,0 l/m 2 min 0 min 0,0 UV-I 360 W/m 10,3 km/h (2 Bft)
20.04.2013 09:38 6,3 C 11,8 C 73 % 1031,1 hPa 0,0 l/m 2 min 0 min 0,0 UV-I 392 W/m 12,9 km/h (3 Bft)
20.04.2013 09:40 6,4 C 12,9 C 73 % 1031,1 hPa 0,0 l/m 2 min 0 min 0,0 UV-I 399 W/m 12,9 km/h (3 Bft)
20.04.2013 09:42 6,5 C 12,3 C 72 % 1031,1 hPa 0,0 l/m 2 min 0 min 0,0 UV-I 392 W/m 20,6 km/h (4 Bft)
20.04.2013 09:44 6,6 C 12,3 C 72 % 1031,1 hPa 0,0 l/m 2 min 0 min 0,0 UV-I 387 W/m 20,6 km/h (4 Bft)
20.04.2013 09:46 6,6 C 11,8 C 71 % 1031,1 hPa 0,0 l/m 2 min 0 min 0,5 UV-I 403 W/m 20,6 km/h (4 Bft)
20.04.2013 09:48 6,6 C 11,8 C 71 % 1031,1 hPa 0,0 l/m 2 min 0 min 0,5 UV-I 425 W/m 20,6 km/h (4 Bft)
20.04.2013 09:50 6,6 C 12,3 C 71 % 1031,1 hPa 0,0 l/m 2 min 0 min 0,5 UV-I 445 W/m 25,7 km/h (4 Bft)
20.04.2013 09:52 6,6 C 12,3 C 71 % 1031,2 hPa 0,0 l/m 2 min 0 min 0,6 UV-I 457 W/m 23,2 km/h (4 Bft)
20.04.2013 09:54 6,6 C 12,9 C 71 % 1031,1 hPa 0,0 l/m 2 min 0 min 0,6 UV-I 461 W/m 23,2 km/h (4 Bft)
20.04.2013 09:56 6,7 C 13,4 C 71 % 1031,1 hPa 0,0 l/m 2 min 0 min 0,6 UV-I 457 W/m 23,2 km/h (4 Bft)
20.04.2013 09:58 6,7 C 13,4 C 71 % 1031,1 hPa 0,0 l/m 2 min 0 min 0,7 UV-I 468 W/m 20,6 km/h (4 Bft)
20.04.2013 10:00 6,7 C 12,9 C 71 % 1031,1 hPa 0,0 l/m 2 min 0 min 0,7 UV-I 469 W/m 20,6 km/h (4 Bft)
20.04.2013 10:02 6,8 C 12,9 C 70 % 1031,1 hPa 0,0 l/m 2 min 0 min 0,7 UV-I 478 W/m 15,4 km/h (3 Bft)
20.04.2013 10:04 6,9 C 13,4 C 71 % 1031,2 hPa 0,0 l/m 2 min 0 min 0,8 UV-I 494 W/m 10,3 km/h (2 Bft)
20.04.2013 10:06 7,1 C 14,6 C 72 % 1031,2 hPa 0,0 l/m 2 min 0 min 0,8 UV-I 510 W/m 5,1 km/h (1 Bft)
20.04.2013 10:08 7,2 C 14,6 C 71 % 1031,2 hPa 0,0 l/m 2 min 0 min 0,0 UV-I 499 W/m 2,6 km/h (1 Bft)
20.04.2013 10:10 7,4 C 12,9 C 70 % 1031,2 hPa 0,0 l/m 0 min 0 min 0,7 UV-I 98 W/m 2,6 km/h (1 Bft)
20.04.2013 10:12 7,5 C 12,9 C 70 % 1031,2 hPa 0,0 l/m 0 min 0 min 0,8 UV-I 98 W/m 5,1 km/h (1 Bft)
20.04.2013 10:14 7,6 C 13,4 C 69 % 1031,2 hPa 0,0 l/m 2 min 0 min 0,8 UV-I 469 W/m 10,3 km/h (2 Bft)
20.04.2013 10:16 7,7 C 14,6 C 68 % 1031,2 hPa 0,0 l/m 2 min 0 min 0,9 UV-I 512 W/m 7,7 km/h (2 Bft)
20.04.2013 10:18 7,8 C 14,6 C 67 % 1031,2 hPa 0,0 l/m 2 min 0 min 1,0 UV-I 529 W/m 12,9 km/h (3 Bft)
20.04.2013 10:20 7,9 C 14,6 C 67 % 1031,1 hPa 0,0 l/m 2 min 0 min 1,0 UV-I 548 W/m 18,0 km/h (3 Bft)
20.04.2013 10:22 8,0 C 14,6 C 67 % 1031,1 hPa 0,0 l/m 2 min 0 min 1,0 UV-I 564 W/m 20,6 km/h (4 Bft)
20.04.2013 10:24 8,1 C 15,1 C 67 % 1031,2 hPa 0,0 l/m 2 min 0 min 0,9 UV-I 540 W/m 10,3 km/h (2 Bft)
20.04.2013 10:26 8,2 C 15,7 C 66 % 1031,2 hPa 0,0 l/m 2 min 0 min 1,1 UV-I 577 W/m 10,3 km/h (2 Bft)
20.04.2013 10:28 8,3 C 16,2 C 66 % 1031,1 hPa 0,0 l/m 2 min 0 min 1,2 UV-I 608 W/m 12,9 km/h (3 Bft)
20.04.2013 10:30 8,4 C 16,2 C 66 % 1031,1 hPa 0,0 l/m 2 min 0 min 1,2 UV-I 610 W/m 15,4 km/h (3 Bft)
20.04.2013 10:32 8,6 C 16,2 C 65 % 1031,1 hPa 0,0 l/m 2 min 0 min 1,3 UV-I 622 W/m 7,7 km/h (2 Bft)
20.04.2013 10:34 8,8 C 15,7 C 67 % 1031,1 hPa 0,0 l/m 2 min 0 min 1,2 UV-I 592 W/m 10,3 km/h (2 Bft)
20.04.2013 10:36 8,9 C 14,6 C 65 % 1031,1 hPa 0,0 l/m 2 min 0 min 0,5 UV-I 591 W/m 15,4 km/h (3 Bft)
20.04.2013 10:38 9,1 C 12,3 C 63 % 1031,1 hPa 0,0 l/m 2 min 0 min 0,5 UV-I 591 W/m 15,4 km/h (3 Bft)
20.04.2013 10:40 9,1 C 12,3 C 62 % 1031,1 hPa 0,0 l/m 2 min 0 min 1,3 UV-I 628 W/m 7,7 km/h (2 Bft)
20.04.2013 10:42 9,1 C 12,3 C 62 % 1031,1 hPa 0,0 l/m 2 min 0 min 1,4 UV-I 626 W/m 10,3 km/h (2 Bft)
20.04.2013 10:44 9,1 C 11,8 C 62 % 1031,0 hPa 0,0 l/m 2 min 0 min 1,3 UV-I 626 W/m 23,2 km/h (4 Bft)
20.04.2013 10:46 8,9 C 11,8 C 62 % 1031,0 hPa 0,0 l/m 2 min 0 min 1,4 UV-I 591 W/m 20,6 km/h (4 Bft)
20.04.2013 10:48 8,8 C 12,9 C 62 % 1031,1 hPa 0,0 l/m 2 min 0 min 1,4 UV-I 599 W/m 20,6 km/h (4 Bft)
20.04.2013 10:50 8,8 C 14,0 C 63 % 1031,1 hPa 0,0 l/m 2 min 0 min 1,5 UV-I 599 W/m 20,6 km/h (4 Bft)
20.04.2013 10:52 8,7 C 13,4 C 62 % 1031,0 hPa 0,0 l/m 2 min 0 min 1,1 UV-I 526 W/m 23,2 km/h (4 Bft)
20.04.2013 10:54 8,5 C 12,9 C 63 % 1031,0 hPa 0,0 l/m 2 min 0 min 1,3 UV-I 404 W/m 12,9 km/h (3 Bft)
20.04.2013 10:56 8,4 C 12,3 C 63 % 1031,0 hPa 0,0 l/m 2 min 0 min 1,2 UV-I 383 W/m 18,0 km/h (3 Bft)
20.04.2013 10:58 8,3 C 11,8 C 64 % 1031,1 hPa 0,0 l/m 2 min 0 min 1,5 UV-I 383 W/m 12,9 km/h (3 Bft)
20.04.2013 11:00 8,3 C 11,8 C 64 % 1031,1 hPa 0,0 l/m 0 min 0 min 1,3 UV-I 301 W/m 18,0 km/h (3 Bft)
20.04.2013 11:02 8,3 C 10,7 C 64 % 1031,1 hPa 0,0 l/m 0 min 0 min 0,6 UV-I 105 W/m 5,1 km/h (1 Bft)
20.04.2013 11:04 8,3 C 10,1 C 64 % 1031,0 hPa 0,0 l/m 0 min 0 min 1,6 UV-I 329 W/m 7,7 km/h (2 Bft)
20.04.2013 11:06 8,4 C 10,7 C 64 % 1031,0 hPa 0,0 l/m 0 min 0 min 0,8 UV-I 350 W/m 10,3 km/h (2 Bft)
20.04.2013 11:08 8,4 C 10,7 C 64 % 1031,0 hPa 0,0 l/m 0 min 0 min 1,7 UV-I 350 W/m 10,3 km/h (2 Bft)
20.04.2013 11:10 8,4 C 10,1 C 63 % 1031,0 hPa 0,0 l/m 0 min 0 min 0,8 UV-I 350 W/m 18,0 km/h (3 Bft)
20.04.2013 11:12 8,4 C 10,7 C 63 % 1030,8 hPa 0,0 l/m 2 min 0 min 1,7 UV-I 563 W/m 15,4 km/h (3 Bft)
20.04.2013 11:14 8,3 C 9,6 C 62 % 1031,0 hPa 0,0 l/m 2 min 0 min 0,7 UV-I 548 W/m 23,2 km/h (4 Bft)
20.04.2013 11:16 8,3 C 10,1 C 64 % 1030,8 hPa 0,0 l/m 2 min 0 min 1,8 UV-I 555 W/m 18,0 km/h (3 Bft)
20.04.2013 11:18 8,3 C 10,7 C 64 % 1030,8 hPa 0,0 l/m 2 min 0 min 1,8 UV-I 571 W/m 20,6 km/h (4 Bft)
20.04.2013 11:20 8,4 C 10,1 C 65 % 1030,7 hPa 0,0 l/m 2 min 0 min 1,6 UV-I 596 W/m 23,2 km/h (4 Bft)
20.04.2013 11:22 8,6 C 10,7 C 65 % 1030,7 hPa 0,0 l/m 2 min 0 min 1,9 UV-I 640 W/m 12,9 km/h (3 Bft)
20.04.2013 11:24 8,7 C 10,7 C 63 % 1030,7 hPa 0,0 l/m 2 min 0 min 1,8 UV-I 629 W/m 15,4 km/h (3 Bft)
20.04.2013 11:26 8,8 C 10,1 C 63 % 1030,8 hPa 0,0 l/m 2 min 0 min 1,7 UV-I 596 W/m 18,0 km/h (3 Bft)
20.04.2013 11:28 8,8 C 10,1 C 63 % 1030,6 hPa 0,0 l/m 2 min 0 min 1,0 UV-I 596 W/m 15,4 km/h (3 Bft)
20.04.2013 11:30 8,8 C 10,1 C 62 % 1030,7 hPa 0,0 l/m 2 min 0 min 2,0 UV-I 596 W/m 20,6 km/h (4 Bft)
20.04.2013 11:32 8,8 C 10,1 C 62 % 1030,7 hPa 0,0 l/m 2 min 0 min 0,9 UV-I 596 W/m 25,7 km/h (4 Bft)
20.04.2013 11:34 8,9 C 10,7 C 64 % 1030,7 hPa 0,0 l/m 2 min 0 min 2,1 UV-I 654 W/m 20,6 km/h (4 Bft)
20.04.2013 11:36 8,9 C 10,1 C 61 % 1030,7 hPa 0,0 l/m 2 min 0 min 1,0 UV-I 654 W/m 30,9 km/h (5 Bft)
20.04.2013 11:38 8,9 C 9,6 C 61 % 1030,7 hPa 0,0 l/m 2 min 0 min 2,1 UV-I 679 W/m 23,2 km/h (4 Bft)
20.04.2013 11:40 8,9 C 10,1 C 61 % 1030,7 hPa 0,0 l/m 2 min 0 min 2,1 UV-I 656 W/m 15,4 km/h (3 Bft)
20.04.2013 11:42 8,9 C 10,1 C 61 % 1030,6 hPa 0,0 l/m 2 min 0 min 2,1 UV-I 657 W/m 33,5 km/h (5 Bft)
20.04.2013 11:44 8,9 C 9,6 C 60 % 1030,6 hPa 0,0 l/m 2 min 0 min 2,2 UV-I 677 W/m 23,2 km/h (4 Bft)
20.04.2013 11:46 8,9 C 10,1 C 61 % 1030,6 hPa 0,0 l/m 2 min 0 min 2,2 UV-I 679 W/m 23,2 km/h (4 Bft)
20.04.2013 11:48 8,9 C 10,7 C 61 % 1030,6 hPa 0,0 l/m 2 min 0 min 2,3 UV-I 677 W/m 20,6 km/h (4 Bft)
20.04.2013 11:50 9,0 C 11,2 C 61 % 1030,6 hPa 0,0 l/m 2 min 0 min 2,2 UV-I 675 W/m 18,0 km/h (3 Bft)
20.04.2013 11:52 9,1 C 12,3 C 61 % 1030,6 hPa 0,0 l/m 2 min 0 min 2,3 UV-I 686 W/m 20,6 km/h (4 Bft)
20.04.2013 11:54 9,2 C 14,0 C 60 % 1030,5 hPa 0,0 l/m 2 min 0 min 2,3 UV-I 687 W/m 15,4 km/h (3 Bft)
20.04.2013 11:56 9,3 C 14,0 C 59 % 1030,6 hPa 0,0 l/m 2 min 0 min 2,4 UV-I 694 W/m 38,6 km/h (5 Bft)
20.04.2013 11:58 9,3 C 13,4 C 58 % 1030,6 hPa 0,0 l/m 2 min 0 min 2,4 UV-I 689 W/m 20,6 km/h (4 Bft)
20.04.2013 12:00 9,4 C 14,6 C 59 % 1030,6 hPa 0,0 l/m 2 min 0 min 2,4 UV-I 689 W/m 20,6 km/h (4 Bft)
20.04.2013 12:02 9,6 C 15,1 C 58 % 1030,6 hPa 0,0 l/m 2 min 0 min 2,4 UV-I 693 W/m 10,3 km/h (2 Bft)
20.04.2013 12:04 9,6 C 15,7 C 56 % 1030,6 hPa 0,0 l/m 2 min 0 min 2,4 UV-I 703 W/m 12,9 km/h (3 Bft)
20.04.2013 12:06 9,8 C 16,2 C 57 % 1030,6 hPa 0,0 l/m 2 min 0 min 2,5 UV-I 708 W/m 23,2 km/h (4 Bft)
20.04.2013 12:08 9,9 C 16,8 C 57 % 1030,6 hPa 0,0 l/m 2 min 0 min 2,5 UV-I 710 W/m 12,9 km/h (3 Bft)
20.04.2013 12:10 10,1 C 15,7 C 57 % 1030,6 hPa 0,0 l/m 2 min 0 min 2,5 UV-I 708 W/m 12,9 km/h (3 Bft)
20.04.2013 12:12 10,2 C 14,6 C 55 % 1030,6 hPa 0,0 l/m 2 min 0 min 2,6 UV-I 712 W/m 25,7 km/h (4 Bft)
20.04.2013 12:14 10,2 C 14,6 C 55 % 1030,6 hPa 0,0 l/m 2 min 0 min 2,6 UV-I 710 W/m 18,0 km/h (3 Bft)
20.04.2013 12:16 10,2 C 15,1 C 56 % 1030,5 hPa 0,0 l/m 2 min 0 min 2,6 UV-I 717 W/m 10,3 km/h (2 Bft)
20.04.2013 12:18 10,3 C 15,7 C 56 % 1030,4 hPa 0,0 l/m 2 min 0 min 2,6 UV-I 717 W/m 10,3 km/h (2 Bft)
20.04.2013 12:20 10,4 C 15,7 C 55 % 1030,5 hPa 0,0 l/m 2 min 0 min 2,7 UV-I 726 W/m 25,7 km/h (4 Bft)
20.04.2013 12:22 10,3 C 14,6 C 55 % 1030,4 hPa 0,0 l/m 2 min 0 min 2,7 UV-I 726 W/m 23,2 km/h (4 Bft)
20.04.2013 12:24 10,4 C 14,6 C 56 % 1030,4 hPa 0,0 l/m 2 min 0 min 2,7 UV-I 729 W/m 18,0 km/h (3 Bft)
20.04.2013 12:26 10,5 C 15,1 C 55 % 1030,4 hPa 0,0 l/m 2 min 0 min 2,8 UV-I 735 W/m 12,9 km/h (3 Bft)
20.04.2013 12:28 10,6 C 15,1 C 54 % 1030,3 hPa 0,0 l/m 2 min 0 min 2,8 UV-I 731 W/m 18,0 km/h (3 Bft)
20.04.2013 12:30 10,6 C 15,7 C 54 % 1030,3 hPa 0,0 l/m 2 min 0 min 2,8 UV-I 737 W/m 15,4 km/h (3 Bft)
20.04.2013 12:32 10,7 C 15,7 C 54 % 1030,3 hPa 0,0 l/m 2 min 0 min 2,8 UV-I 740 W/m 12,9 km/h (3 Bft)
20.04.2013 12:34 10,7 C 15,1 C 55 % 1030,3 hPa 0,0 l/m 2 min 0 min 2,8 UV-I 740 W/m 23,2 km/h (4 Bft)
20.04.2013 12:36 10,6 C 15,1 C 54 % 1030,3 hPa 0,0 l/m 2 min 0 min 2,8 UV-I 733 W/m 30,9 km/h (5 Bft)
20.04.2013 12:38 10,6 C 15,7 C 54 % 1030,2 hPa 0,0 l/m 2 min 0 min 2,9 UV-I 744 W/m 15,4 km/h (3 Bft)
20.04.2013 12:40 10,6 C 16,2 C 54 % 1030,1 hPa 0,0 l/m 2 min 0 min 2,9 UV-I 744 W/m 15,4 km/h (3 Bft)
20.04.2013 12:42 10,6 C 17,3 C 55 % 1030,1 hPa 0,0 l/m 2 min 0 min 2,9 UV-I 742 W/m 25,7 km/h (4 Bft)
20.04.2013 12:44 10,6 C 15,7 C 54 % 1030,2 hPa 0,0 l/m 2 min 0 min 3,0 UV-I 751 W/m 30,9 km/h (5 Bft)
20.04.2013 12:46 10,5 C 16,8 C 55 % 1030,1 hPa 0,0 l/m 2 min 0 min 3,0 UV-I 756 W/m 15,4 km/h (3 Bft)
20.04.2013 12:48 10,6 C 17,9 C 55 % 1030,1 hPa 0,0 l/m 2 min 0 min 3,0 UV-I 751 W/m 12,9 km/h (3 Bft)
20.04.2013 12:50 10,7 C 17,3 C 53 % 1030,1 hPa 0,0 l/m 2 min 0 min 3,0 UV-I 754 W/m 23,2 km/h (4 Bft)
20.04.2013 12:52 10,7 C 17,3 C 53 % 1030,0 hPa 0,0 l/m 2 min 0 min 3,0 UV-I 756 W/m 23,2 km/h (4 Bft)
20.04.2013 12:54 10,7 C 17,3 C 54 % 1030,0 hPa 0,0 l/m 2 min 0 min 3,0 UV-I 749 W/m 20,6 km/h (4 Bft)
20.04.2013 12:56 10,7 C 16,2 C 53 % 1030,0 hPa 0,0 l/m 2 min 0 min 3,0 UV-I 756 W/m 43,8 km/h (6 Bft)
20.04.2013 12:58 10,8 C 17,9 C 55 % 1030,1 hPa 0,0 l/m 2 min 0 min 3,0 UV-I 758 W/m 15,4 km/h (3 Bft)
20.04.2013 13:00 10,9 C 17,9 C 54 % 1030,0 hPa 0,0 l/m 2 min 0 min 3,0 UV-I 759 W/m 15,4 km/h (3 Bft)
20.04.2013 13:02 11,2 C 17,9 C 55 % 1030,0 hPa 0,0 l/m 2 min 0 min 3,1 UV-I 761 W/m 10,3 km/h (2 Bft)
20.04.2013 13:04 11,3 C 17,3 C 53 % 1030,0 hPa 0,0 l/m 2 min 0 min 3,1 UV-I 756 W/m 28,3 km/h (4 Bft)
20.04.2013 13:06 11,2 C 16,8 C 53 % 1030,0 hPa 0,0 l/m 2 min 0 min 3,1 UV-I 761 W/m 18,0 km/h (3 Bft)
20.04.2013 13:08 11,1 C 16,2 C 52 % 1029,9 hPa 0,0 l/m 2 min 0 min 3,1 UV-I 761 W/m 30,9 km/h (5 Bft)
20.04.2013 13:10 10,9 C 15,1 C 51 % 1030,0 hPa 0,0 l/m 2 min 0 min 3,1 UV-I 766 W/m 43,8 km/h (6 Bft)
20.04.2013 13:12 10,9 C 16,2 C 52 % 1030,0 hPa 0,0 l/m 2 min 0 min 3,1 UV-I 765 W/m 12,9 km/h (3 Bft)
20.04.2013 13:14 10,9 C 16,2 C 52 % 1029,9 hPa 0,0 l/m 2 min 0 min 3,1 UV-I 768 W/m 33,5 km/h (5 Bft)
20.04.2013 13:16 10,9 C 15,7 C 52 % 1029,9 hPa 0,0 l/m 2 min 0 min 3,1 UV-I 759 W/m 28,3 km/h (4 Bft)
20.04.2013 13:18 11,0 C 15,7 C 53 % 1029,9 hPa 0,0 l/m 2 min 0 min 3,1 UV-I 754 W/m 18,0 km/h (3 Bft)
20.04.2013 13:20 11,1 C 15,7 C 53 % 1029,8 hPa 0,0 l/m 2 min 0 min 3,1 UV-I 763 W/m 20,6 km/h (4 Bft)
20.04.2013 13:22 11,1 C 15,1 C 54 % 1029,8 hPa 0,0 l/m 2 min 0 min 3,1 UV-I 770 W/m 20,6 km/h (4 Bft)
20.04.2013 13:24 11,2 C 15,7 C 53 % 1029,8 hPa 0,0 l/m 2 min 0 min 3,1 UV-I 770 W/m 12,9 km/h (3 Bft)
20.04.2013 13:26 11,3 C 15,1 C 53 % 1029,7 hPa 0,0 l/m 2 min 0 min 3,1 UV-I 773 W/m 20,6 km/h (4 Bft)
20.04.2013 13:28 11,3 C 15,1 C 52 % 1029,7 hPa 0,0 l/m 2 min 0 min 3,1 UV-I 770 W/m 20,6 km/h (4 Bft)
20.04.2013 13:30 11,3 C 15,1 C 51 % 1029,7 hPa 0,0 l/m 2 min 0 min 3,1 UV-I 768 W/m 23,2 km/h (4 Bft)
20.04.2013 13:32 11,3 C 14,6 C 51 % 1029,8 hPa 0,0 l/m 2 min 0 min 3,2 UV-I 773 W/m 28,3 km/h (4 Bft)
20.04.2013 13:34 11,2 C 13,4 C 52 % 1029,8 hPa 0,0 l/m 2 min 0 min 3,2 UV-I 772 W/m 25,7 km/h (4 Bft)
20.04.2013 13:36 11,1 C 12,9 C 52 % 1029,7 hPa 0,0 l/m 2 min 0 min 3,2 UV-I 775 W/m 18,0 km/h (3 Bft)
20.04.2013 13:38 11,2 C 12,9 C 53 % 1029,7 hPa 0,0 l/m 2 min 0 min 3,2 UV-I 775 W/m 23,2 km/h (4 Bft)
20.04.2013 13:40 11,3 C 12,9 C 51 % 1029,7 hPa 0,0 l/m 2 min 0 min 3,2 UV-I 777 W/m 12,9 km/h (3 Bft)
20.04.2013 13:42 11,5 C 12,9 C 53 % 1029,7 hPa 0,0 l/m 2 min 0 min 3,2 UV-I 773 W/m 12,9 km/h (3 Bft)
20.04.2013 13:44 11,7 C 12,9 C 52 % 1029,7 hPa 0,0 l/m 2 min 0 min 3,2 UV-I 775 W/m 12,9 km/h (3 Bft)
20.04.2013 13:46 11,8 C 12,9 C 52 % 1029,6 hPa 0,0 l/m 2 min 0 min 3,1 UV-I 770 W/m 12,9 km/h (3 Bft)
20.04.2013 13:48 11,8 C 12,3 C 51 % 1029,6 hPa 0,0 l/m 2 min 0 min 3,2 UV-I 777 W/m 18,0 km/h (3 Bft)
20.04.2013 13:50 11,9 C 12,3 C 52 % 1029,6 hPa 0,0 l/m 2 min 0 min 3,1 UV-I 773 W/m 20,6 km/h (4 Bft)
20.04.2013 13:52 11,9 C 12,3 C 52 % 1029,6 hPa 0,0 l/m 2 min 0 min 3,1 UV-I 768 W/m 12,9 km/h (3 Bft)
20.04.2013 13:54 11,9 C 12,3 C 52 % 1029,6 hPa 0,0 l/m 2 min 0 min 3,1 UV-I 770 W/m 23,2 km/h (4 Bft)
20.04.2013 13:56 11,7 C 11,2 C 51 % 1029,6 hPa 0,0 l/m 2 min 0 min 3,1 UV-I 768 W/m 25,7 km/h (4 Bft)
20.04.2013 13:58 11,6 C 11,2 C 52 % 1029,6 hPa 0,0 l/m 2 min 0 min 3,1 UV-I 773 W/m 18,0 km/h (3 Bft)
20.04.2013 14:00 11,6 C 11,8 C 53 % 1029,5 hPa 0,0 l/m 2 min 0 min 3,1 UV-I 773 W/m 12,9 km/h (3 Bft)
20.04.2013 14:02 11,7 C 12,3 C 54 % 1029,6 hPa 0,0 l/m 2 min 0 min 3,1 UV-I 773 W/m 18,0 km/h (3 Bft)
20.04.2013 14:04 11,9 C 12,3 C 53 % 1029,4 hPa 0,0 l/m 2 min 0 min 3,1 UV-I 761 W/m 28,3 km/h (4 Bft)
20.04.2013 14:06 11,8 C 11,8 C 52 % 1029,5 hPa 0,0 l/m 2 min 0 min 3,1 UV-I 770 W/m 30,9 km/h (5 Bft)
20.04.2013 14:08 11,7 C 11,2 C 53 % 1029,5 hPa 0,0 l/m 2 min 0 min 3,1 UV-I 761 W/m 23,2 km/h (4 Bft)
20.04.2013 14:10 11,7 C 11,8 C 53 % 1029,5 hPa 0,0 l/m 2 min 0 min 3,1 UV-I 763 W/m 23,2 km/h (4 Bft)
20.04.2013 14:12 11,6 C 11,8 C 53 % 1029,5 hPa 0,0 l/m 2 min 0 min 3,0 UV-I 763 W/m 18,0 km/h (3 Bft)
20.04.2013 14:14 11,7 C 11,8 C 53 % 1029,5 hPa 0,0 l/m 2 min 0 min 3,0 UV-I 763 W/m 18,0 km/h (3 Bft)
20.04.2013 14:16 11,8 C 11,8 C 53 % 1029,5 hPa 0,0 l/m 2 min 0 min 3,0 UV-I 765 W/m 25,7 km/h (4 Bft)
20.04.2013 14:18 11,8 C 11,8 C 51 % 1029,5 hPa 0,0 l/m 2 min 0 min 3,1 UV-I 768 W/m 23,2 km/h (4 Bft)
20.04.2013 14:20 11,7 C 11,8 C 51 % 1029,4 hPa 0,0 l/m 2 min 0 min 3,0 UV-I 763 W/m 20,6 km/h (4 Bft)
20.04.2013 14:22 11,7 C 11,2 C 51 % 1029,4 hPa 0,0 l/m 2 min 0 min 3,0 UV-I 759 W/m 30,9 km/h (5 Bft)
20.04.2013 14:24 11,7 C 11,8 C 53 % 1029,4 hPa 0,0 l/m 2 min 0 min 3,0 UV-I 754 W/m 18,0 km/h (3 Bft)
20.04.2013 14:26 11,7 C 11,2 C 53 % 1029,4 hPa 0,0 l/m 2 min 0 min 3,0 UV-I 756 W/m 25,7 km/h (4 Bft)
20.04.2013 14:28 11,7 C 11,2 C 52 % 1029,4 hPa 0,0 l/m 2 min 0 min 2,9 UV-I 752 W/m 30,9 km/h (5 Bft)
20.04.2013 14:30 11,6 C 11,2 C 53 % 1029,4 hPa 0,0 l/m 2 min 0 min 2,9 UV-I 756 W/m 28,3 km/h (4 Bft)
20.04.2013 14:32 11,6 C 11,2 C 52 % 1029,3 hPa 0,0 l/m 2 min 0 min 2,9 UV-I 761 W/m 25,7 km/h (4 Bft)
20.04.2013 14:34 11,6 C 11,2 C 53 % 1029,3 hPa 0,0 l/m 2 min 0 min 2,9 UV-I 751 W/m 28,3 km/h (4 Bft)
20.04.2013 14:36 11,6 C 11,2 C 53 % 1029,4 hPa 0,0 l/m 2 min 0 min 2,9 UV-I 752 W/m 23,2 km/h (4 Bft)
20.04.2013 14:38 11,6 C 11,2 C 53 % 1029,4 hPa 0,0 l/m 2 min 0 min 2,8 UV-I 745 W/m 28,3 km/h (4 Bft)
20.04.2013 14:40 11,6 C 11,2 C 54 % 1029,3 hPa 0,0 l/m 2 min 0 min 2,8 UV-I 747 W/m 23,2 km/h (4 Bft)
20.04.2013 14:42 11,7 C 11,2 C 54 % 1029,2 hPa 0,0 l/m 2 min 0 min 2,8 UV-I 740 W/m 23,2 km/h (4 Bft)
20.04.2013 14:44 11,8 C 11,8 C 53 % 1029,2 hPa 0,0 l/m 2 min 0 min 2,8 UV-I 742 W/m 18,0 km/h (3 Bft)
20.04.2013 14:46 11,8 C 11,8 C 52 % 1029,3 hPa 0,0 l/m 2 min 0 min 2,7 UV-I 738 W/m 30,9 km/h (5 Bft)
20.04.2013 14:48 11,8 C 11,8 C 53 % 1029,2 hPa 0,0 l/m 2 min 0 min 2,8 UV-I 744 W/m 12,9 km/h (3 Bft)
20.04.2013 14:50 11,8 C 11,8 C 53 % 1029,3 hPa 0,0 l/m 2 min 0 min 2,7 UV-I 735 W/m 23,2 km/h (4 Bft)
20.04.2013 14:52 11,9 C 11,8 C 54 % 1029,2 hPa 0,0 l/m 2 min 0 min 2,7 UV-I 729 W/m 10,3 km/h (2 Bft)
20.04.2013 14:54 12,1 C 11,8 C 51 % 1029,1 hPa 0,0 l/m 2 min 0 min 2,7 UV-I 737 W/m 18,0 km/h (3 Bft)
20.04.2013 14:56 12,3 C 12,3 C 51 % 1029,1 hPa 0,0 l/m 2 min 0 min 2,7 UV-I 731 W/m 12,9 km/h (3 Bft)
20.04.2013 14:58 12,4 C 12,9 C 52 % 1029,0 hPa 0,0 l/m 2 min 0 min 2,6 UV-I 724 W/m 23,2 km/h (4 Bft)
20.04.2013 15:00 12,5 C 12,3 C 51 % 1029,1 hPa 0,0 l/m 2 min 0 min 2,6 UV-I 722 W/m 23,2 km/h (4 Bft)
20.04.2013 15:02 12,6 C 12,3 C 51 % 1029,0 hPa 0,0 l/m 2 min 0 min 2,6 UV-I 724 W/m 25,7 km/h (4 Bft)
20.04.2013 15:04 12,6 C 12,3 C 52 % 1029,0 hPa 0,0 l/m 2 min 0 min 2,6 UV-I 719 W/m 18,0 km/h (3 Bft)
20.04.2013 15:06 12,7 C 12,9 C 53 % 1028,9 hPa 0,0 l/m 2 min 0 min 2,6 UV-I 724 W/m 15,4 km/h (3 Bft)
20.04.2013 15:08 12,8 C 12,9 C 51 % 1029,0 hPa 0,0 l/m 2 min 0 min 2,5 UV-I 719 W/m 12,9 km/h (3 Bft)
20.04.2013 15:10 12,9 C 12,9 C 51 % 1029,0 hPa 0,0 l/m 2 min 0 min 2,5 UV-I 710 W/m 18,0 km/h (3 Bft)
20.04.2013 15:12 13,1 C 12,9 C 51 % 1028,9 hPa 0,0 l/m 2 min 0 min 2,5 UV-I 721 W/m 10,3 km/h (2 Bft)
20.04.2013 15:14 13,2 C 12,9 C 50 % 1028,9 hPa 0,0 l/m 2 min 0 min 2,5 UV-I 717 W/m 12,9 km/h (3 Bft)
20.04.2013 15:16 13,2 C 12,9 C 49 % 1028,9 hPa 0,0 l/m 2 min 0 min 2,4 UV-I 696 W/m 15,4 km/h (3 Bft)
20.04.2013 15:18 13,3 C 12,9 C 49 % 1028,8 hPa 0,0 l/m 2 min 0 min 2,5 UV-I 708 W/m 15,4 km/h (3 Bft)
20.04.2013 15:20 13,4 C 13,4 C 49 % 1028,9 hPa 0,0 l/m 2 min 0 min 2,4 UV-I 710 W/m 15,4 km/h (3 Bft)
20.04.2013 15:22 13,5 C 13,4 C 48 % 1028,9 hPa 0,0 l/m 2 min 0 min 2,4 UV-I 705 W/m 10,3 km/h (2 Bft)
20.04.2013 15:24 13,6 C 13,4 C 49 % 1028,8 hPa 0,0 l/m 2 min 0 min 2,3 UV-I 698 W/m 12,9 km/h (3 Bft)
20.04.2013 15:26 13,6 C 13,4 C 48 % 1028,8 hPa 0,0 l/m 2 min 0 min 2,4 UV-I 708 W/m 7,7 km/h (2 Bft)
20.04.2013 15:28 13,7 C 13,4 C 47 % 1028,8 hPa 0,0 l/m 2 min 0 min 2,3 UV-I 696 W/m 12,9 km/h (3 Bft)
20.04.2013 15:30 13,6 C 12,9 C 48 % 1028,6 hPa 0,0 l/m 2 min 0 min 2,3 UV-I 686 W/m 28,3 km/h (4 Bft)
20.04.2013 15:32 13,3 C 12,9 C 48 % 1028,6 hPa 0,0 l/m 2 min 0 min 2,2 UV-I 687 W/m 28,3 km/h (4 Bft)
20.04.2013 15:34 13,3 C 12,9 C 48 % 1028,6 hPa 0,0 l/m 2 min 0 min 2,2 UV-I 693 W/m 20,6 km/h (4 Bft)
20.04.2013 15:36 13,2 C 12,9 C 48 % 1028,5 hPa 0,0 l/m 2 min 0 min 2,2 UV-I 693 W/m 20,6 km/h (4 Bft)
20.04.2013 15:38 13,2 C 12,9 C 48 % 1028,6 hPa 0,0 l/m 2 min 0 min 2,2 UV-I 684 W/m 18,0 km/h (3 Bft)
20.04.2013 15:40 13,1 C 12,9 C 48 % 1028,5 hPa 0,0 l/m 2 min 0 min 2,1 UV-I 680 W/m 30,9 km/h (5 Bft)
20.04.2013 15:42 12,9 C 12,3 C 47 % 1028,5 hPa 0,0 l/m 2 min 0 min 2,1 UV-I 680 W/m 25,7 km/h (4 Bft)
20.04.2013 15:44 12,8 C 12,9 C 50 % 1028,5 hPa 0,0 l/m 2 min 0 min 2,1 UV-I 671 W/m 18,0 km/h (3 Bft)
20.04.2013 15:46 12,8 C 12,3 C 47 % 1028,5 hPa 0,0 l/m 2 min 0 min 2,0 UV-I 670 W/m 28,3 km/h (4 Bft)
20.04.2013 15:48 12,8 C 12,9 C 49 % 1028,4 hPa 0,0 l/m 2 min 0 min 2,0 UV-I 663 W/m 12,9 km/h (3 Bft)
20.04.2013 15:50 12,9 C 13,4 C 48 % 1028,4 hPa 0,0 l/m 2 min 0 min 2,0 UV-I 666 W/m 30,9 km/h (5 Bft)
20.04.2013 15:52 12,9 C 12,9 C 48 % 1028,5 hPa 0,0 l/m 2 min 0 min 2,0 UV-I 668 W/m 15,4 km/h (3 Bft)
20.04.2013 15:54 13,0 C 12,9 C 48 % 1028,4 hPa 0,0 l/m 2 min 0 min 1,9 UV-I 661 W/m 25,7 km/h (4 Bft)
20.04.2013 15:56 12,9 C 12,3 C 47 % 1028,4 hPa 0,0 l/m 2 min 0 min 1,9 UV-I 656 W/m 28,3 km/h (4 Bft)
20.04.2013 15:58 12,8 C 12,3 C 49 % 1028,3 hPa 0,0 l/m 2 min 0 min 1,9 UV-I 652 W/m 28,3 km/h (4 Bft)
20.04.2013 16:00 12,8 C 12,9 C 49 % 1028,3 hPa 0,0 l/m 2 min 0 min 1,8 UV-I 657 W/m 30,9 km/h (5 Bft)
20.04.2013 16:02 12,8 C 12,9 C 50 % 1028,3 hPa 0,0 l/m 2 min 0 min 1,8 UV-I 647 W/m 30,9 km/h (5 Bft)
20.04.2013 16:04 12,8 C 12,9 C 48 % 1028,3 hPa 0,0 l/m 2 min 0 min 1,8 UV-I 635 W/m 28,3 km/h (4 Bft)
20.04.2013 16:06 12,8 C 12,9 C 49 % 1028,3 hPa 0,0 l/m 2 min 0 min 1,8 UV-I 640 W/m 15,4 km/h (3 Bft)
20.04.2013 16:08 12,8 C 12,9 C 48 % 1028,3 hPa 0,0 l/m 2 min 0 min 1,7 UV-I 640 W/m 25,7 km/h (4 Bft)
20.04.2013 16:10 12,7 C 12,3 C 49 % 1028,2 hPa 0,0 l/m 2 min 0 min 1,7 UV-I 636 W/m 28,3 km/h (4 Bft)
20.04.2013 16:12 12,8 C 12,9 C 50 % 1028,2 hPa 0,0 l/m 2 min 0 min 1,6 UV-I 629 W/m 12,9 km/h (3 Bft)
20.04.2013 16:14 12,9 C 13,4 C 48 % 1028,1 hPa 0,0 l/m 2 min 0 min 1,6 UV-I 629 W/m 20,6 km/h (4 Bft)
20.04.2013 16:16 13,1 C 13,4 C 48 % 1028,1 hPa 0,0 l/m 2 min 0 min 1,6 UV-I 629 W/m 12,9 km/h (3 Bft)
20.04.2013 16:18 13,2 C 14,0 C 49 % 1028,1 hPa 0,0 l/m 2 min 0 min 1,6 UV-I 629 W/m 10,3 km/h (2 Bft)
20.04.2013 16:20 13,4 C 14,6 C 48 % 1028,2 hPa 0,0 l/m 2 min 0 min 1,5 UV-I 605 W/m 10,3 km/h (2 Bft)
20.04.2013 16:22 13,6 C 15,1 C 47 % 1028,1 hPa 0,0 l/m 2 min 0 min 1,5 UV-I 617 W/m 18,0 km/h (3 Bft)
20.04.2013 16:24 13,6 C 14,6 C 47 % 1028,0 hPa 0,0 l/m 2 min 0 min 1,4 UV-I 610 W/m 5,1 km/h (1 Bft)
20.04.2013 16:26 13,7 C 14,0 C 47 % 1028,0 hPa 0,0 l/m 2 min 0 min 1,4 UV-I 598 W/m 12,9 km/h (3 Bft)
20.04.2013 16:28 13,6 C 13,4 C 46 % 1028,1 hPa 0,0 l/m 2 min 0 min 1,4 UV-I 601 W/m 30,9 km/h (5 Bft)
20.04.2013 16:30 13,6 C 13,4 C 48 % 1027,9 hPa 0,0 l/m 2 min 0 min 1,4 UV-I 605 W/m 15,4 km/h (3 Bft)
20.04.2013 16:32 13,6 C 13,4 C 49 % 1027,9 hPa 0,0 l/m 2 min 0 min 1,3 UV-I 598 W/m 15,4 km/h (3 Bft)
20.04.2013 16:34 13,6 C 13,4 C 48 % 1027,9 hPa 0,0 l/m 2 min 0 min 1,3 UV-I 594 W/m 25,7 km/h (4 Bft)
20.04.2013 16:36 13,4 C 12,9 C 47 % 1027,9 hPa 0,0 l/m 2 min 0 min 1,3 UV-I 589 W/m 28,3 km/h (4 Bft)
20.04.2013 16:38 13,2 C 12,9 C 48 % 1027,8 hPa 0,0 l/m 2 min 0 min 1,3 UV-I 578 W/m 20,6 km/h (4 Bft)
20.04.2013 16:40 13,2 C 12,9 C 49 % 1027,8 hPa 0,0 l/m 2 min 0 min 1,3 UV-I 589 W/m 28,3 km/h (4 Bft)
20.04.2013 16:45 13,3 C 12,9 C 47 % 1027,8 hPa 0,0 l/m 2 min 0 min 1,2 UV-I 575 W/m 28,3 km/h (4 Bft)
20.04.2013 16:48 13,4 C 13,4 C 49 % 1027,8 hPa 0,0 l/m 2 min 0 min 1,1 UV-I 545 W/m 7,7 km/h (2 Bft)
20.04.2013 16:50 13,6 C 13,4 C 48 % 1027,7 hPa 0,0 l/m 2 min 0 min 1,1 UV-I 557 W/m 18,0 km/h (3 Bft)
20.04.2013 16:52 13,6 C 13,4 C 47 % 1027,6 hPa 0,0 l/m 2 min 0 min 1,1 UV-I 561 W/m 12,9 km/h (3 Bft)
20.04.2013 16:54 13,6 C 13,4 C 47 % 1027,6 hPa 0,0 l/m 2 min 0 min 1,0 UV-I 555 W/m 20,6 km/h (4 Bft)
20.04.2013 16:56 13,6 C 13,4 C 49 % 1027,6 hPa 0,0 l/m 2 min 0 min 1,0 UV-I 555 W/m 18,0 km/h (3 Bft)
20.04.2013 16:58 13,6 C 13,4 C 48 % 1027,6 hPa 0,0 l/m 2 min 0 min 1,0 UV-I 548 W/m 18,0 km/h (3 Bft)
20.04.2013 17:00 13,6 C 12,9 C 48 % 1027,6 hPa 0,0 l/m 2 min 0 min 0,8 UV-I 487 W/m 18,0 km/h (3 Bft)
20.04.2013 17:02 13,5 C 12,9 C 48 % 1027,6 hPa 0,0 l/m 2 min 0 min 0,5 UV-I 295 W/m 15,4 km/h (3 Bft)
20.04.2013 17:04 13,4 C 12,9 C 49 % 1027,5 hPa 0,0 l/m 2 min 0 min 0,5 UV-I 313 W/m 18,0 km/h (3 Bft)
20.04.2013 17:06 13,2 C 12,3 C 49 % 1027,5 hPa 0,0 l/m 2 min 0 min 0,5 UV-I 388 W/m 15,4 km/h (3 Bft)
20.04.2013 17:08 13,1 C 12,3 C 48 % 1027,4 hPa 0,0 l/m 2 min 0 min 0,7 UV-I 459 W/m 20,6 km/h (4 Bft)
20.04.2013 17:10 13,1 C 12,3 C 49 % 1027,4 hPa 0,0 l/m 2 min 0 min 0,6 UV-I 417 W/m 15,4 km/h (3 Bft)
20.04.2013 17:12 12,9 C 12,3 C 49 % 1027,3 hPa 0,0 l/m 2 min 0 min 0,6 UV-I 401 W/m 20,6 km/h (4 Bft)
20.04.2013 17:14 12,9 C 12,3 C 50 % 1027,5 hPa 0,0 l/m 2 min 0 min 0,5 UV-I 371 W/m 18,0 km/h (3 Bft)
20.04.2013 17:16 12,9 C 12,3 C 49 % 1027,4 hPa 0,0 l/m 2 min 0 min 0,5 UV-I 397 W/m 15,4 km/h (3 Bft)
20.04.2013 17:18 12,9 C 12,3 C 50 % 1027,4 hPa 0,0 l/m 2 min 0 min 0,0 UV-I 290 W/m 23,2 km/h (4 Bft)
20.04.2013 17:20 12,8 C 11,8 C 48 % 1027,4 hPa 0,0 l/m 2 min 0 min 0,0 UV-I 309 W/m 28,3 km/h (4 Bft)
20.04.2013 17:22 12,7 C 11,8 C 49 % 1027,3 hPa 0,0 l/m 2 min 0 min 0,5 UV-I 374 W/m 20,6 km/h (4 Bft)
20.04.2013 17:24 12,6 C 11,8 C 49 % 1027,3 hPa 0,0 l/m 2 min 0 min 0,5 UV-I 367 W/m 20,6 km/h (4 Bft)
20.04.2013 17:26 12,6 C 12,3 C 50 % 1027,4 hPa 0,0 l/m 2 min 0 min 0,5 UV-I 438 W/m 18,0 km/h (3 Bft)
20.04.2013 17:28 12,6 C 11,8 C 49 % 1027,4 hPa 0,0 l/m 2 min 0 min 0,5 UV-I 443 W/m 23,2 km/h (4 Bft)
20.04.2013 17:30 12,5 C 11,8 C 50 % 1027,4 hPa 0,0 l/m 2 min 0 min 0,5 UV-I 431 W/m 30,9 km/h (5 Bft)
20.04.2013 17:32 12,5 C 12,3 C 49 % 1027,3 hPa 0,0 l/m 2 min 0 min 0,5 UV-I 448 W/m 18,0 km/h (3 Bft)
20.04.2013 17:34 12,6 C 12,3 C 50 % 1027,3 hPa 0,0 l/m 2 min 0 min 0,0 UV-I 438 W/m 12,9 km/h (3 Bft)
20.04.2013 17:36 12,7 C 12,3 C 50 % 1027,3 hPa 0,0 l/m 2 min 0 min 0,0 UV-I 434 W/m 12,9 km/h (3 Bft)
20.04.2013 17:38 12,8 C 12,3 C 49 % 1027,3 hPa 0,0 l/m 2 min 0 min 0,0 UV-I 366 W/m 15,4 km/h (3 Bft)
20.04.2013 17:40 12,8 C 12,3 C 49 % 1027,2 hPa 0,0 l/m 2 min 0 min 0,0 UV-I 278 W/m 15,4 km/h (3 Bft)
20.04.2013 17:42 12,8 C 12,3 C 49 % 1027,2 hPa 0,0 l/m 2 min 0 min 0,0 UV-I 297 W/m 25,7 km/h (4 Bft)
20.04.2013 17:44 12,8 C 12,3 C 49 % 1027,2 hPa 0,0 l/m 0 min 0 min 0,0 UV-I 229 W/m 18,0 km/h (3 Bft)
20.04.2013 17:46 12,8 C 12,3 C 49 % 1027,2 hPa 0,0 l/m 2 min 0 min 0,0 UV-I 329 W/m 33,5 km/h (5 Bft)
20.04.2013 17:48 12,8 C 12,3 C 49 % 1027,2 hPa 0,0 l/m 2 min 0 min 0,0 UV-I 341 W/m 25,7 km/h (4 Bft)
20.04.2013 17:50 12,7 C 11,8 C 48 % 1027,1 hPa 0,0 l/m 2 min 0 min 0,0 UV-I 336 W/m 30,9 km/h (5 Bft)
20.04.2013 17:52 12,6 C 11,8 C 49 % 1027,1 hPa 0,0 l/m 2 min 0 min 0,0 UV-I 397 W/m 23,2 km/h (4 Bft)
20.04.2013 17:54 12,5 C 11,8 C 49 % 1027,1 hPa 0,0 l/m 2 min 0 min 0,0 UV-I 388 W/m 23,2 km/h (4 Bft)
20.04.2013 17:56 12,5 C 11,8 C 49 % 1027,0 hPa 0,0 l/m 2 min 0 min 0,0 UV-I 343 W/m 10,3 km/h (2 Bft)
20.04.2013 17:58 12,6 C 11,8 C 50 % 1027,1 hPa 0,0 l/m 0 min 0 min 0,0 UV-I 172 W/m 12,9 km/h (3 Bft)
20.04.2013 18:00 12,6 C 11,8 C 49 % 1027,0 hPa 0,0 l/m 2 min 0 min 0,0 UV-I 373 W/m 23,2 km/h (4 Bft)
20.04.2013 18:02 12,6 C 11,8 C 50 % 1027,1 hPa 0,0 l/m 0 min 0 min 0,0 UV-I 209 W/m 25,7 km/h (4 Bft)
20.04.2013 18:04 12,5 C 11,8 C 51 % 1027,1 hPa 0,0 l/m 0 min 0 min 0,0 UV-I 176 W/m 25,7 km/h (4 Bft)
20.04.2013 18:06 12,4 C 11,8 C 50 % 1027,0 hPa 0,0 l/m 2 min 0 min 0,0 UV-I 295 W/m 18,0 km/h (3 Bft)
20.04.2013 18:08 12,4 C 11,8 C 49 % 1027,0 hPa 0,0 l/m 2 min 0 min 0,0 UV-I 288 W/m 38,6 km/h (5 Bft)
20.04.2013 18:10 12,3 C 11,8 C 50 % 1027,1 hPa 0,0 l/m 2 min 0 min 0,0 UV-I 225 W/m 25,7 km/h (4 Bft)
20.04.2013 18:12 12,2 C 11,8 C 50 % 1027,2 hPa 0,0 l/m 2 min 0 min 0,0 UV-I 253 W/m 30,9 km/h (5 Bft)
20.04.2013 18:14 12,3 C 11,8 C 50 % 1027,1 hPa 0,0 l/m 2 min 0 min 0,0 UV-I 258 W/m 18,0 km/h (3 Bft)
20.04.2013 18:16 12,3 C 11,8 C 51 % 1027,1 hPa 0,0 l/m 2 min 0 min 0,0 UV-I 339 W/m 20,6 km/h (4 Bft)
20.04.2013 18:18 12,3 C 11,8 C 50 % 1027,1 hPa 0,0 l/m 2 min 0 min 0,0 UV-I 292 W/m 20,6 km/h (4 Bft)
20.04.2013 18:20 12,3 C 11,8 C 50 % 1027,1 hPa 0,0 l/m 2 min 0 min 0,0 UV-I 192 W/m 12,9 km/h (3 Bft)
20.04.2013 18:22 12,3 C 11,8 C 51 % 1027,1 hPa 0,0 l/m 0 min 0 min 0,0 UV-I 127 W/m 12,9 km/h (3 Bft)
20.04.2013 18:24 12,4 C 11,8 C 50 % 1027,0 hPa 0,0 l/m 0 min 0 min 0,0 UV-I 183 W/m 18,0 km/h (3 Bft)
20.04.2013 18:26 12,3 C 11,8 C 49 % 1026,9 hPa 0,0 l/m 0 min 0 min 0,0 UV-I 171 W/m 20,6 km/h (4 Bft)
20.04.2013 18:28 12,3 C 11,8 C 50 % 1026,8 hPa 0,0 l/m 2 min 0 min 0,0 UV-I 181 W/m 25,7 km/h (4 Bft)
20.04.2013 18:30 12,3 C 11,8 C 51 % 1026,8 hPa 0,0 l/m 2 min 0 min 0,0 UV-I 290 W/m 18,0 km/h (3 Bft)
20.04.2013 18:32 12,4 C 11,8 C 50 % 1026,8 hPa 0,0 l/m 0 min 0 min 0,0 UV-I 167 W/m 36,0 km/h (5 Bft)
20.04.2013 18:34 12,4 C 11,8 C 49 % 1026,9 hPa 0,0 l/m 2 min 0 min 0,0 UV-I 214 W/m 20,6 km/h (4 Bft)
20.04.2013 18:36 12,4 C 11,8 C 50 % 1026,7 hPa 0,0 l/m 2 min 0 min 0,0 UV-I 251 W/m 12,9 km/h (3 Bft)
20.04.2013 18:38 12,4 C 11,8 C 50 % 1026,7 hPa 0,0 l/m 2 min 0 min 0,0 UV-I 207 W/m 15,4 km/h (3 Bft)
20.04.2013 18:40 12,4 C 11,8 C 49 % 1026,7 hPa 0,0 l/m 2 min 0 min 0,0 UV-I 195 W/m 18,0 km/h (3 Bft)
20.04.2013 18:42 12,4 C 12,3 C 50 % 1026,7 hPa 0,0 l/m 2 min 0 min 0,0 UV-I 234 W/m 12,9 km/h (3 Bft)
20.04.2013 18:44 12,5 C 12,3 C 50 % 1026,8 hPa 0,0 l/m 2 min 0 min 0,0 UV-I 162 W/m 7,7 km/h (2 Bft)
20.04.2013 18:46 12,5 C 12,3 C 50 % 1026,8 hPa 0,0 l/m 2 min 0 min 0,0 UV-I 220 W/m 18,0 km/h (3 Bft)
20.04.2013 18:48 12,6 C 12,3 C 50 % 1026,8 hPa 0,0 l/m 2 min 0 min 0,0 UV-I 199 W/m 18,0 km/h (3 Bft)
20.04.2013 18:50 12,5 C 12,3 C 50 % 1026,8 hPa 0,0 l/m 2 min 0 min 0,0 UV-I 153 W/m 12,9 km/h (3 Bft)
20.04.2013 18:52 12,5 C 11,8 C 50 % 1026,7 hPa 0,0 l/m 2 min 0 min 0,0 UV-I 188 W/m 20,6 km/h (4 Bft)
20.04.2013 18:54 12,5 C 11,8 C 51 % 1026,7 hPa 0,0 l/m 0 min 0 min 0,0 UV-I 130 W/m 12,9 km/h (3 Bft)
20.04.2013 18:56 12,5 C 11,8 C 52 % 1026,8 hPa 0,0 l/m 0 min 0 min 0,0 UV-I 125 W/m 10,3 km/h (2 Bft)
20.04.2013 18:58 12,5 C 11,8 C 51 % 1026,7 hPa 0,0 l/m 2 min 0 min 0,0 UV-I 183 W/m 12,9 km/h (3 Bft)
20.04.2013 19:00 12,5 C 11,8 C 51 % 1026,7 hPa 0,0 l/m 2 min 0 min 0,0 UV-I 165 W/m 10,3 km/h (2 Bft)
20.04.2013 19:02 12,5 C 11,8 C 51 % 1026,7 hPa 0,0 l/m 2 min 0 min 0,0 UV-I 165 W/m 15,4 km/h (3 Bft)
20.04.2013 19:04 12,4 C 11,8 C 50 % 1026,7 hPa 0,0 l/m 0 min 0 min 0,0 UV-I 121 W/m 15,4 km/h (3 Bft)
20.04.2013 19:06 12,3 C 11,2 C 50 % 1026,7 hPa 0,0 l/m 0 min 0 min 0,0 UV-I 105 W/m 10,3 km/h (2 Bft)
20.04.2013 19:08 12,2 C 11,2 C 51 % 1026,7 hPa 0,0 l/m 0 min 0 min 0,0 UV-I 113 W/m 15,4 km/h (3 Bft)
20.04.2013 19:10 12,2 C 11,2 C 51 % 1026,6 hPa 0,0 l/m 0 min 0 min 0,0 UV-I 88 W/m 7,7 km/h (2 Bft)
20.04.2013 19:12 12,2 C 11,2 C 52 % 1026,7 hPa 0,0 l/m 0 min 0 min 0,0 UV-I 62 W/m 15,4 km/h (3 Bft)
20.04.2013 19:14 12,1 C 11,2 C 51 % 1026,7 hPa 0,0 l/m 0 min 0 min 0,0 UV-I 79 W/m 15,4 km/h (3 Bft)
20.04.2013 19:16 12,1 C 11,2 C 51 % 1026,7 hPa 0,0 l/m 0 min 0 min 0,0 UV-I 58 W/m 10,3 km/h (2 Bft)
20.04.2013 19:18 12,1 C 11,2 C 52 % 1026,7 hPa 0,0 l/m 0 min 0 min 0,0 UV-I 58 W/m 12,9 km/h (3 Bft)
20.04.2013 19:20 12,0 C 11,2 C 51 % 1026,7 hPa 0,0 l/m 0 min 0 min 0,0 UV-I 56 W/m 25,7 km/h (4 Bft)
20.04.2013 19:22 11,9 C 11,2 C 51 % 1026,6 hPa 0,0 l/m 0 min 0 min 0,0 UV-I 60 W/m 10,3 km/h (2 Bft)
20.04.2013 19:24 11,9 C 11,2 C 51 % 1026,6 hPa 0,0 l/m 0 min 0 min 0,0 UV-I 88 W/m 12,9 km/h (3 Bft)
20.04.2013 19:26 11,9 C 11,2 C 52 % 1026,6 hPa 0,0 l/m 0 min 0 min 0,0 UV-I 83 W/m 7,7 km/h (2 Bft)
20.04.2013 19:28 11,9 C 11,2 C 51 % 1026,6 hPa 0,0 l/m 2 min 0 min 0,0 UV-I 95 W/m 7,7 km/h (2 Bft)
20.04.2013 19:30 11,9 C 10,7 C 51 % 1026,5 hPa 0,0 l/m 2 min 0 min 0,0 UV-I 105 W/m 12,9 km/h (3 Bft)
20.04.2013 19:32 11,8 C 10,7 C 51 % 1026,5 hPa 0,0 l/m 0 min 0 min 0,0 UV-I 72 W/m 18,0 km/h (3 Bft)
20.04.2013 19:34 11,8 C 10,7 C 51 % 1026,6 hPa 0,0 l/m 0 min 0 min 0,0 UV-I 47 W/m 15,4 km/h (3 Bft)
20.04.2013 19:36 11,8 C 10,7 C 52 % 1026,6 hPa 0,0 l/m 0 min 0 min 0,0 UV-I 47 W/m 12,9 km/h (3 Bft)
20.04.2013 19:38 11,7 C 10,7 C 52 % 1026,5 hPa 0,0 l/m 0 min 0 min 0,0 UV-I 44 W/m 10,3 km/h (2 Bft)
20.04.2013 19:40 11,7 C 10,7 C 52 % 1026,5 hPa 0,0 l/m 0 min 0 min 0,0 UV-I 44 W/m 7,7 km/h (2 Bft)
20.04.2013 19:42 11,7 C 10,7 C 52 % 1026,5 hPa 0,0 l/m 0 min 0 min 0,0 UV-I 42 W/m 7,7 km/h (2 Bft)
20.04.2013 19:44 11,6 C 10,1 C 53 % 1026,6 hPa 0,0 l/m 0 min 0 min 0,0 UV-I 40 W/m 7,7 km/h (2 Bft)
20.04.2013 19:46 11,6 C 10,1 C 52 % 1026,5 hPa 0,0 l/m 0 min 0 min 0,0 UV-I 40 W/m 15,4 km/h (3 Bft)
20.04.2013 19:48 11,5 C 10,1 C 52 % 1026,5 hPa 0,0 l/m 0 min 0 min 0,0 UV-I 40 W/m 15,4 km/h (3 Bft)
20.04.2013 19:50 11,4 C 10,1 C 52 % 1026,5 hPa 0,0 l/m 0 min 0 min 0,0 UV-I 37 W/m 10,3 km/h (2 Bft)
20.04.2013 19:52 11,4 C 10,1 C 53 % 1026,5 hPa 0,0 l/m 0 min 0 min 0,0 UV-I 37 W/m 15,4 km/h (3 Bft)
20.04.2013 19:54 11,3 C 10,1 C 53 % 1026,5 hPa 0,0 l/m 0 min 0 min 0,0 UV-I 35 W/m 15,4 km/h (3 Bft)
20.04.2013 19:56 11,3 C 10,1 C 53 % 1026,5 hPa 0,0 l/m 0 min 0 min 0,0 UV-I 33 W/m 12,9 km/h (3 Bft)
20.04.2013 19:58 11,2 C 9,6 C 53 % 1026,5 hPa 0,0 l/m 0 min 0 min 0,0 UV-I 32 W/m 7,7 km/h (2 Bft)
20.04.2013 20:00 11,2 C 9,6 C 53 % 1026,5 hPa 0,0 l/m 0 min 0 min 0,0 UV-I 30 W/m 7,7 km/h (2 Bft)
20.04.2013 20:02 11,1 C 9,6 C 54 % 1026,4 hPa 0,0 l/m 0 min 0 min 0,0 UV-I 28 W/m 5,1 km/h (1 Bft)
20.04.2013 20:04 11,1 C 9,6 C 54 % 1026,4 hPa 0,0 l/m 0 min 0 min 0,0 UV-I 26 W/m 7,7 km/h (2 Bft)
20.04.2013 20:06 11,0 C 9,6 C 54 % 1026,5 hPa 0,0 l/m 0 min 0 min 0,0 UV-I 26 W/m 0,0 km/h (0 Bft)
20.04.2013 20:08 11,0 C 9,6 C 55 % 1026,4 hPa 0,0 l/m 0 min 0 min 0,0 UV-I 25 W/m 5,1 km/h (1 Bft)
20.04.2013 20:10 10,9 C 9,6 C 54 % 1026,5 hPa 0,0 l/m 0 min 0 min 0,0 UV-I 23 W/m 12,9 km/h (3 Bft)
20.04.2013 20:12 10,9 C 9,6 C 54 % 1026,5 hPa 0,0 l/m 0 min 0 min 0,0 UV-I 21 W/m 7,7 km/h (2 Bft)
20.04.2013 20:14 10,8 C 9,6 C 55 % 1026,5 hPa 0,0 l/m 0 min 0 min 0,0 UV-I 19 W/m 5,1 km/h (1 Bft)
20.04.2013 20:16 10,8 C 9,0 C 55 % 1026,5 hPa 0,0 l/m 0 min 0 min 0,0 UV-I 19 W/m 0,0 km/h (0 Bft)
20.04.2013 20:18 10,8 C 9,0 C 55 % 1026,4 hPa 0,0 l/m 0 min 0 min 0,0 UV-I 18 W/m 0,0 km/h (0 Bft)
20.04.2013 20:20 10,7 C 9,0 C 56 % 1026,4 hPa 0,0 l/m 0 min 0 min 0,0 UV-I 16 W/m 10,3 km/h (2 Bft)
20.04.2013 20:22 10,7 C 9,0 C 55 % 1026,4 hPa 0,0 l/m 0 min 0 min 0,0 UV-I 14 W/m 7,7 km/h (2 Bft)
20.04.2013 20:24 10,6 C 9,0 C 56 % 1026,5 hPa 0,0 l/m 0 min 0 min 0,0 UV-I 12 W/m 5,1 km/h (1 Bft)
20.04.2013 20:26 10,6 C 9,0 C 56 % 1026,5 hPa 0,0 l/m 0 min 0 min 0,0 UV-I 11 W/m 0,0 km/h (0 Bft)
20.04.2013 20:28 10,6 C 9,0 C 55 % 1026,5 hPa 0,0 l/m 0 min 0 min 0,0 UV-I 11 W/m 0,0 km/h (0 Bft)
20.04.2013 20:30 10,5 C 8,4 C 56 % 1026,6 hPa 0,0 l/m 0 min 0 min 0,0 UV-I 9 W/m 0,0 km/h (0 Bft)
20.04.2013 20:32 10,4 C 8,4 C 56 % 1026,6 hPa 0,0 l/m 0 min 0 min 0,0 UV-I 7 W/m 2,6 km/h (1 Bft)
20.04.2013 20:34 10,4 C 8,4 C 56 % 1026,6 hPa 0,0 l/m 0 min 0 min 0,0 UV-I 7 W/m 0,0 km/h (0 Bft)
20.04.2013 20:36 10,3 C 8,4 C 55 % 1026,6 hPa 0,0 l/m 0 min 0 min 0,0 UV-I 7 W/m 2,6 km/h (1 Bft)
20.04.2013 20:38 10,3 C 8,4 C 56 % 1026,6 hPa 0,0 l/m 0 min 0 min 0,0 UV-I 5 W/m 0,0 km/h (0 Bft)
20.04.2013 20:40 10,3 C 8,4 C 56 % 1026,6 hPa 0,0 l/m 0 min 0 min 0,0 UV-I 5 W/m 0,0 km/h (0 Bft)
20.04.2013 20:42 10,2 C 8,4 C 56 % 1026,7 hPa 0,0 l/m 0 min 0 min 0,0 UV-I 5 W/m 0,0 km/h (0 Bft)
20.04.2013 20:44 10,2 C 7,9 C 56 % 1026,7 hPa 0,0 l/m 0 min 0 min 0,0 UV-I 0 W/m 0,0 km/h (0 Bft)
20.04.2013 20:46 10,1 C 7,9 C 56 % 1026,7 hPa 0,0 l/m 0 min 0 min 0,0 UV-I 0 W/m 0,0 km/h (0 Bft)
20.04.2013 20:48 10,1 C 7,9 C 57 % 1026,7 hPa 0,0 l/m 0 min 0 min 0,0 UV-I 0 W/m 0,0 km/h (0 Bft)
20.04.2013 20:50 10,0 C 7,9 C 56 % 1026,7 hPa 0,0 l/m 0 min 0 min 0,0 UV-I 0 W/m 7,7 km/h (2 Bft)
20.04.2013 20:52 9,9 C 7,9 C 56 % 1026,7 hPa 0,0 l/m 0 min 0 min 0,0 UV-I 0 W/m 0,0 km/h (0 Bft)
20.04.2013 20:54 9,9 C 7,9 C 57 % 1026,8 hPa 0,0 l/m 0 min 0 min 0,0 UV-I 0 W/m 0,0 km/h (0 Bft)
20.04.2013 20:56 9,8 C 7,9 C 56 % 1026,7 hPa 0,0 l/m 0 min 0 min 0,0 UV-I 0 W/m 2,6 km/h (1 Bft)
20.04.2013 20:58 9,8 C 7,9 C 57 % 1026,7 hPa 0,0 l/m 0 min 0 min 0,0 UV-I 0 W/m 0,0 km/h (0 Bft)
20.04.2013 21:00 9,7 C 7,9 C 56 % 1026,8 hPa 0,0 l/m 0 min 0 min 0,0 UV-I 0 W/m 0,0 km/h (0 Bft)
20.04.2013 21:02 9,7 C 7,9 C 57 % 1026,8 hPa 0,0 l/m 0 min 0 min 0,0 UV-I 0 W/m 2,6 km/h (1 Bft)
20.04.2013 21:06 9,6 C 7,3 C 57 % 1026,9 hPa 0,0 l/m 0 min 0 min 0,0 UV-I 0 W/m 0,0 km/h (0 Bft)
20.04.2013 21:08 9,6 C 7,3 C 57 % 1026,8 hPa 0,0 l/m 0 min 0 min 0,0 UV-I 0 W/m 0,0 km/h (0 Bft)
20.04.2013 21:10 9,6 C 7,3 C 57 % 1026,8 hPa 0,0 l/m 0 min 0 min 0,0 UV-I 0 W/m 0,0 km/h (0 Bft)
20.04.2013 21:12 9,5 C 7,3 C 57 % 1026,8 hPa 0,0 l/m 0 min 0 min 0,0 UV-I 0 W/m 2,6 km/h (1 Bft)
20.04.2013 21:14 9,4 C 7,3 C 57 % 1026,8 hPa 0,0 l/m 0 min 0 min 0,0 UV-I 0 W/m 0,0 km/h (0 Bft)
20.04.2013 21:16 9,4 C 7,3 C 57 % 1026,9 hPa 0,0 l/m 0 min 0 min 0,0 UV-I 0 W/m 0,0 km/h (0 Bft)
20.04.2013 21:18 9,3 C 7,3 C 58 % 1026,9 hPa 0,0 l/m 0 min 0 min 0,0 UV-I 0 W/m 0,0 km/h (0 Bft)
20.04.2013 21:20 9,3 C 7,3 C 58 % 1026,9 hPa 0,0 l/m 0 min 0 min 0,0 UV-I 0 W/m 0,0 km/h (0 Bft)
20.04.2013 21:22 9,3 C 7,3 C 58 % 1026,9 hPa 0,0 l/m 0 min 0 min 0,0 UV-I 0 W/m 2,6 km/h (1 Bft)
20.04.2013 21:24 9,2 C 7,3 C 58 % 1026,9 hPa 0,0 l/m 0 min 0 min 0,0 UV-I 0 W/m 0,0 km/h (0 Bft)
20.04.2013 21:26 9,2 C 7,3 C 58 % 1026,9 hPa 0,0 l/m 0 min 0 min 0,0 UV-I 0 W/m 2,6 km/h (1 Bft)
20.04.2013 21:28 9,2 C 7,3 C 59 % 1026,9 hPa 0,0 l/m 0 min 0 min 0,0 UV-I 0 W/m 2,6 km/h (1 Bft)
20.04.2013 21:30 9,2 C 7,3 C 59 % 1027,0 hPa 0,0 l/m 0 min 0 min 0,0 UV-I 0 W/m 0,0 km/h (0 Bft)
20.04.2013 21:32 9,1 C 7,3 C 59 % 1027,0 hPa 0,0 l/m 0 min 0 min 0,0 UV-I 0 W/m 0,0 km/h (0 Bft)
20.04.2013 21:34 9,1 C 7,3 C 59 % 1026,9 hPa 0,0 l/m 0 min 0 min 0,0 UV-I 0 W/m 0,0 km/h (0 Bft)
20.04.2013 21:36 9,1 C 7,3 C 59 % 1026,9 hPa 0,0 l/m 0 min 0 min 0,0 UV-I 0 W/m 5,1 km/h (1 Bft)
20.04.2013 21:38 9,1 C 7,3 C 59 % 1026,9 hPa 0,0 l/m 0 min 0 min 0,0 UV-I 0 W/m 0,0 km/h (0 Bft)
20.04.2013 21:40 9,0 C 7,3 C 59 % 1027,0 hPa 0,0 l/m 0 min 0 min 0,0 UV-I 0 W/m 2,6 km/h (1 Bft)
20.04.2013 21:42 9,0 C 7,3 C 59 % 1026,9 hPa 0,0 l/m 0 min 0 min 0,0 UV-I 0 W/m 0,0 km/h (0 Bft)
20.04.2013 21:44 8,9 C 7,3 C 59 % 1027,0 hPa 0,0 l/m 0 min 0 min 0,0 UV-I 0 W/m 2,6 km/h (1 Bft)
20.04.2013 21:46 8,9 C 7,3 C 59 % 1026,8 hPa 0,0 l/m 0 min 0 min 0,0 UV-I 0 W/m 0,0 km/h (0 Bft)
20.04.2013 21:48 8,9 C 7,3 C 60 % 1026,9 hPa 0,0 l/m 0 min 0 min 0,0 UV-I 0 W/m 0,0 km/h (0 Bft)
20.04.2013 21:50 8,9 C 7,3 C 60 % 1026,9 hPa 0,0 l/m 0 min 0 min 0,0 UV-I 0 W/m 0,0 km/h (0 Bft)
20.04.2013 21:52 8,9 C 7,3 C 60 % 1026,9 hPa 0,0 l/m 0 min 0 min 0,0 UV-I 0 W/m 0,0 km/h (0 Bft)
20.04.2013 21:54 8,9 C 7,3 C 60 % 1026,9 hPa 0,0 l/m 0 min 0 min 0,0 UV-I 0 W/m 0,0 km/h (0 Bft)
20.04.2013 21:56 8,8 C 6,8 C 60 % 1026,8 hPa 0,0 l/m 0 min 0 min 0,0 UV-I 0 W/m 2,6 km/h (1 Bft)
20.04.2013 21:58 8,8 C 6,8 C 60 % 1026,8 hPa 0,0 l/m 0 min 0 min 0,0 UV-I 0 W/m 0,0 km/h (0 Bft)
20.04.2013 22:00 8,8 C 6,8 C 61 % 1026,8 hPa 0,0 l/m 0 min 0 min 0,0 UV-I 0 W/m 2,6 km/h (1 Bft)
20.04.2013 22:02 8,8 C 7,3 C 60 % 1026,8 hPa 0,0 l/m 0 min 0 min 0,0 UV-I 0 W/m 0,0 km/h (0 Bft)
20.04.2013 22:04 8,8 C 6,8 C 61 % 1026,7 hPa 0,0 l/m 0 min 0 min 0,0 UV-I 0 W/m 0,0 km/h (0 Bft)
20.04.2013 22:06 8,7 C 6,8 C 61 % 1026,7 hPa 0,0 l/m 0 min 0 min 0,0 UV-I 0 W/m 0,0 km/h (0 Bft)
20.04.2013 22:08 8,7 C 6,8 C 61 % 1026,7 hPa 0,0 l/m 0 min 0 min 0,0 UV-I 0 W/m 5,1 km/h (1 Bft)
20.04.2013 22:10 8,7 C 6,8 C 61 % 1026,7 hPa 0,0 l/m 0 min 0 min 0,0 UV-I 0 W/m 2,6 km/h (1 Bft)
20.04.2013 22:12 8,7 C 6,8 C 61 % 1026,7 hPa 0,0 l/m 0 min 0 min 0,0 UV-I 0 W/m 0,0 km/h (0 Bft)
20.04.2013 22:14 8,7 C 6,8 C 61 % 1026,7 hPa 0,0 l/m 0 min 0 min 0,0 UV-I 0 W/m 2,6 km/h (1 Bft)
20.04.2013 22:16 8,6 C 6,8 C 61 % 1026,6 hPa 0,0 l/m 0 min 0 min 0,0 UV-I 0 W/m 2,6 km/h (1 Bft)
20.04.2013 22:18 8,6 C 6,8 C 61 % 1026,6 hPa 0,0 l/m 0 min 0 min 0,0 UV-I 0 W/m 0,0 km/h (0 Bft)
20.04.2013 22:20 8,6 C 6,8 C 61 % 1026,5 hPa 0,0 l/m 0 min 0 min 0,0 UV-I 0 W/m 2,6 km/h (1 Bft)
20.04.2013 22:22 8,6 C 6,8 C 61 % 1026,5 hPa 0,0 l/m 0 min 0 min 0,0 UV-I 0 W/m 0,0 km/h (0 Bft)
20.04.2013 22:24 8,6 C 6,8 C 61 % 1026,5 hPa 0,0 l/m 0 min 0 min 0,0 UV-I 0 W/m 0,0 km/h (0 Bft)
20.04.2013 22:26 8,6 C 6,8 C 62 % 1026,5 hPa 0,0 l/m 0 min 0 min 0,0 UV-I 0 W/m 0,0 km/h (0 Bft)
20.04.2013 22:28 8,6 C 6,8 C 62 % 1026,6 hPa 0,0 l/m 0 min 0 min 0,0 UV-I 0 W/m 0,0 km/h (0 Bft)
20.04.2013 22:30 8,5 C 6,8 C 62 % 1026,6 hPa 0,0 l/m 0 min 0 min 0,0 UV-I 0 W/m 0,0 km/h (0 Bft)
20.04.2013 22:32 8,5 C 6,8 C 62 % 1026,6 hPa 0,0 l/m 0 min 0 min 0,0 UV-I 0 W/m 0,0 km/h (0 Bft)
20.04.2013 22:34 8,4 C 6,8 C 62 % 1026,6 hPa 0,0 l/m 0 min 0 min 0,0 UV-I 0 W/m 0,0 km/h (0 Bft)
20.04.2013 22:36 8,4 C 6,8 C 62 % 1026,5 hPa 0,0 l/m 0 min 0 min 0,0 UV-I 0 W/m 2,6 km/h (1 Bft)
20.04.2013 22:38 8,4 C 6,8 C 62 % 1026,5 hPa 0,0 l/m 0 min 0 min 0,0 UV-I 0 W/m 0,0 km/h (0 Bft)
20.04.2013 22:40 8,4 C 6,8 C 62 % 1026,5 hPa 0,0 l/m 0 min 0 min 0,0 UV-I 0 W/m 0,0 km/h (0 Bft)
20.04.2013 22:42 8,3 C 6,8 C 65 % 1026,5 hPa 0,0 l/m 0 min 0 min 0,0 UV-I 0 W/m 0,0 km/h (0 Bft)
20.04.2013 22:44 8,3 C 6,8 C 62 % 1026,6 hPa 0,0 l/m 0 min 0 min 0,0 UV-I 0 W/m 0,0 km/h (0 Bft)
20.04.2013 22:46 8,3 C 6,2 C 62 % 1026,6 hPa 0,0 l/m 0 min 0 min 0,0 UV-I 0 W/m 0,0 km/h (0 Bft)
20.04.2013 22:48 8,3 C 6,2 C 62 % 1026,6 hPa 0,0 l/m 0 min 0 min 0,0 UV-I 0 W/m 0,0 km/h (0 Bft)
20.04.2013 22:50 8,3 C 6,2 C 63 % 1026,5 hPa 0,0 l/m 0 min 0 min 0,0 UV-I 0 W/m 0,0 km/h (0 Bft)
20.04.2013 22:52 8,2 C 6,2 C 63 % 1026,5 hPa 0,0 l/m 0 min 0 min 0,0 UV-I 0 W/m 0,0 km/h (0 Bft)
20.04.2013 22:54 8,2 C 6,2 C 63 % 1026,5 hPa 0,0 l/m 0 min 0 min 0,0 UV-I 0 W/m 0,0 km/h (0 Bft)
20.04.2013 22:56 8,2 C 6,2 C 63 % 1026,4 hPa 0,0 l/m 0 min 0 min 0,0 UV-I 0 W/m 0,0 km/h (0 Bft)
20.04.2013 22:58 8,2 C 6,2 C 63 % 1026,4 hPa 0,0 l/m 0 min 0 min 0,0 UV-I 0 W/m 0,0 km/h (0 Bft)
20.04.2013 23:00 8,1 C 6,2 C 63 % 1026,4 hPa 0,0 l/m 0 min 0 min 0,0 UV-I 0 W/m 2,6 km/h (1 Bft)
20.04.2013 23:02 8,1 C 6,2 C 63 % 1026,5 hPa 0,0 l/m 0 min 0 min 0,0 UV-I 0 W/m 0,0 km/h (0 Bft)
20.04.2013 23:04 8,1 C 6,2 C 63 % 1026,4 hPa 0,0 l/m 0 min 0 min 0,0 UV-I 0 W/m 0,0 km/h (0 Bft)
20.04.2013 23:06 8,1 C 6,2 C 63 % 1026,4 hPa 0,0 l/m 0 min 0 min 0,0 UV-I 0 W/m 0,0 km/h (0 Bft)
20.04.2013 23:08 8,1 C 6,2 C 63 % 1026,4 hPa 0,0 l/m 0 min 0 min 0,0 UV-I 0 W/m 0,0 km/h (0 Bft)
20.04.2013 23:10 8,0 C 6,2 C 63 % 1026,3 hPa 0,0 l/m 0 min 0 min 0,0 UV-I 0 W/m 0,0 km/h (0 Bft)
20.04.2013 23:12 8,0 C 6,2 C 63 % 1026,3 hPa 0,0 l/m 0 min 0 min 0,0 UV-I 0 W/m 0,0 km/h (0 Bft)
20.04.2013 23:14 8,0 C 6,2 C 64 % 1026,4 hPa 0,0 l/m 0 min 0 min 0,0 UV-I 0 W/m 0,0 km/h (0 Bft)
20.04.2013 23:16 8,0 C 6,2 C 64 % 1026,4 hPa 0,0 l/m 0 min 0 min 0,0 UV-I 0 W/m 0,0 km/h (0 Bft)
20.04.2013 23:18 8,0 C 6,2 C 63 % 1026,4 hPa 0,0 l/m 0 min 0 min 0,0 UV-I 0 W/m 5,1 km/h (1 Bft)
20.04.2013 23:20 8,0 C 6,2 C 64 % 1026,4 hPa 0,0 l/m 0 min 0 min 0,0 UV-I 0 W/m 0,0 km/h (0 Bft)
20.04.2013 23:22 8,0 C 6,2 C 64 % 1026,4 hPa 0,0 l/m 0 min 0 min 0,0 UV-I 0 W/m 0,0 km/h (0 Bft)
20.04.2013 23:24 7,9 C 6,2 C 64 % 1026,4 hPa 0,0 l/m 0 min 0 min 0,0 UV-I 0 W/m 0,0 km/h (0 Bft)
20.04.2013 23:26 7,9 C 6,2 C 64 % 1026,4 hPa 0,0 l/m 0 min 0 min 0,0 UV-I 0 W/m 0,0 km/h (0 Bft)
20.04.2013 23:28 7,9 C 6,2 C 64 % 1026,3 hPa 0,0 l/m 0 min 0 min 0,0 UV-I 0 W/m 0,0 km/h (0 Bft)
20.04.2013 23:30 7,9 C 6,2 C 64 % 1026,3 hPa 0,0 l/m 0 min 0 min 0,0 UV-I 0 W/m 0,0 km/h (0 Bft)
20.04.2013 23:32 7,9 C 6,2 C 64 % 1026,3 hPa 0,0 l/m 0 min 0 min 0,0 UV-I 0 W/m 0,0 km/h (0 Bft)
20.04.2013 23:34 7,9 C 6,2 C 64 % 1026,3 hPa 0,0 l/m 0 min 0 min 0,0 UV-I 0 W/m 0,0 km/h (0 Bft)
20.04.2013 23:36 7,9 C 6,2 C 64 % 1026,3 hPa 0,0 l/m 0 min 0 min 0,0 UV-I 0 W/m 0,0 km/h (0 Bft)
20.04.2013 23:38 7,8 C 6,2 C 64 % 1026,3 hPa 0,0 l/m 0 min 0 min 0,0 UV-I 0 W/m 0,0 km/h (0 Bft)
20.04.2013 23:40 7,8 C 6,2 C 65 % 1026,3 hPa 0,0 l/m 0 min 0 min 0,0 UV-I 0 W/m 0,0 km/h (0 Bft)
20.04.2013 23:42 7,8 C 6,2 C 65 % 1026,2 hPa 0,0 l/m 0 min 0 min 0,0 UV-I 0 W/m 0,0 km/h (0 Bft)
20.04.2013 23:44 7,8 C 6,2 C 65 % 1026,3 hPa 0,0 l/m 0 min 0 min 0,0 UV-I 0 W/m 0,0 km/h (0 Bft)
20.04.2013 23:46 7,8 C 6,2 C 65 % 1026,3 hPa 0,0 l/m 0 min 0 min 0,0 UV-I 0 W/m 0,0 km/h (0 Bft)
20.04.2013 23:48 7,8 C 6,2 C 65 % 1026,3 hPa 0,0 l/m 0 min 0 min 0,0 UV-I 0 W/m 0,0 km/h (0 Bft)
20.04.2013 23:50 7,8 C 6,2 C 65 % 1026,3 hPa 0,0 l/m 0 min 0 min 0,0 UV-I 0 W/m 2,6 km/h (1 Bft)
20.04.2013 23:52 7,8 C 6,2 C 65 % 1026,3 hPa 0,0 l/m 0 min 0 min 0,0 UV-I 0 W/m 0,0 km/h (0 Bft)
20.04.2013 23:54 7,8 C 6,2 C 65 % 1026,2 hPa 0,0 l/m 0 min 0 min 0,0 UV-I 0 W/m 0,0 km/h (0 Bft)
20.04.2013 23:56 7,8 C 6,2 C 65 % 1026,2 hPa 0,0 l/m 0 min 0 min 0,0 UV-I 0 W/m 0,0 km/h (0 Bft)
20.04.2013 23:58 7,8 C 6,2 C 66 % 1026,2 hPa 0,0 l/m 0 min 0 min 0,0 UV-I 0 W/m 0,0 km/h (0 Bft)
_ Min-Zeit 06:40 05:56 16:28 23:42 - - - - - 06:32
Minimum _ 2,6 C 1,8 C 46 % 1026,2 hPa - - - - - 0,0 km/h (0 Bft)
_ Max-Zeit 15:28 12:48 05:32 09:02 00:00 09:22 00:00 13:32 13:40 12:56
Maximum _ 13,7 C 17,9 C 94 % 1031,2 hPa 0,0 l/m 2 min 0 min 3,2 UV-I 777 W/m 43,8 km/h
N-NW (6 Bft)
Durchschnitt _ 8,2 C 8,2 C 69 % 1029,0 hPa #0,0 l/m #9:06 h #0 min. 2,0 UV-I 399 W/m 13,5 km/h (3 Bft)
© 2013 W. Hausmann